Time,TemperatureF,DewpointF,PressureIn,WindDirection,WindDirectionDegrees,WindSpeedMPH,WindSpeedGustMPH,Humidity,HourlyPrecipIn,Conditions,Clouds,dailyrainin,SolarRadiationWatts/m^2,SoftwareType,DateUTC
2014-01-18 00:00:00,36.0,19.6,29.87,WSW,241,9.0,13.0,51,0.00,,,0.00,0,WeatherCatV1.24B11,2014-01-18 06:00:00,
2014-01-18 00:01:00,36.0,19.6,29.87,WSW,247,6.0,13.0,51,0.00,,,0.00,0,WeatherCatV1.24B11,2014-01-18 06:01:00,
2014-01-18 00:02:00,36.0,19.6,29.87,West,267,6.0,13.0,51,0.00,,,0.00,0,WeatherCatV1.24B11,2014-01-18 06:02:00,
2014-01-18 00:03:00,35.9,19.6,29.87,West,261,6.0,9.0,51,0.00,,,0.00,0,WeatherCatV1.24B11,2014-01-18 06:03:00,
2014-01-18 00:04:00,35.9,19.6,29.87,WSW,252,4.0,9.0,51,0.00,,,0.00,0,WeatherCatV1.24B11,2014-01-18 06:04:00,
2014-01-18 00:05:00,35.9,19.6,29.87,WSW,245,4.0,7.0,51,0.00,,,0.00,0,WeatherCatV1.24B11,2014-01-18 06:05:00,
2014-01-18 00:06:00,35.7,19.8,29.86,WSW,248,4.0,7.0,52,0.00,,,0.00,0,WeatherCatV1.24B11,2014-01-18 06:06:00,
2014-01-18 00:07:00,35.7,19.8,29.87,WSW,249,5.0,7.0,52,0.00,,,0.00,0,WeatherCatV1.24B11,2014-01-18 06:07:00,
2014-01-18 00:09:00,35.7,19.8,29.86,WSW,245,9.0,11.0,52,0.00,,,0.00,0,WeatherCatV1.24B11,2014-01-18 06:09:00,
2014-01-18 00:10:00,35.8,19.9,29.86,WSW,257,5.0,13.0,52,0.00,,,0.00,0,WeatherCatV1.24B11,2014-01-18 06:10:00,
2014-01-18 00:12:00,35.8,19.9,29.86,SW,234,12.0,13.0,52,0.00,,,0.00,0,WeatherCatV1.24B11,2014-01-18 06:12:00,
2014-01-18 00:13:00,35.9,20.0,29.86,West,260,5.0,13.0,52,0.00,,,0.00,0,WeatherCatV1.24B11,2014-01-18 06:13:00,
2014-01-18 00:14:00,35.9,20.0,29.86,West,267,6.0,7.0,52,0.00,,,0.00,0,WeatherCatV1.24B11,2014-01-18 06:14:00,
2014-01-18 00:16:00,35.9,20.0,29.86,West,272,5.0,11.0,52,0.00,,,0.00,0,WeatherCatV1.24B11,2014-01-18 06:16:00,
2014-01-18 00:17:00,35.9,20.0,29.86,West,262,7.0,9.0,52,0.00,,,0.00,0,WeatherCatV1.24B11,2014-01-18 06:17:00,
2014-01-18 00:18:00,35.9,20.0,29.86,WSW,252,8.0,9.0,52,0.00,,,0.00,0,WeatherCatV1.24B11,2014-01-18 06:18:00,
2014-01-18 00:19:00,35.9,20.0,29.86,WSW,254,6.0,9.0,52,0.00,,,0.00,0,WeatherCatV1.24B11,2014-01-18 06:19:00,
2014-01-18 00:21:00,35.9,20.0,29.85,WNW,300,7.0,11.0,52,0.00,,,0.00,0,WeatherCatV1.24B11,2014-01-18 06:21:00,
2014-01-18 00:22:00,35.9,20.0,29.86,West,277,4.0,9.0,52,0.00,,,0.00,0,WeatherCatV1.24B11,2014-01-18 06:22:00,
2014-01-18 00:23:00,35.9,20.0,29.85,WNW,292,4.0,9.0,52,0.00,,,0.00,0,WeatherCatV1.24B11,2014-01-18 06:23:00,
2014-01-18 00:24:00,35.9,20.0,29.85,WSW,240,5.0,9.0,52,0.00,,,0.00,0,WeatherCatV1.24B11,2014-01-18 06:24:00,
2014-01-18 00:26:00,35.8,19.9,29.85,WSW,240,3.0,9.0,52,0.00,,,0.00,0,WeatherCatV1.24B11,2014-01-18 06:26:00,
2014-01-18 00:28:00,35.8,19.9,29.85,West,271,5.0,11.0,52,0.00,,,0.00,0,WeatherCatV1.24B11,2014-01-18 06:28:00,
2014-01-18 00:29:00,35.8,19.9,29.85,West,280,4.0,11.0,52,0.00,,,0.00,0,WeatherCatV1.24B11,2014-01-18 06:29:00,
2014-01-18 00:31:00,35.8,20.4,29.85,WSW,250,6.0,6.0,53,0.00,,,0.00,0,WeatherCatV1.24B11,2014-01-18 06:31:00,
2014-01-18 00:33:00,35.8,20.4,29.85,SW,236,7.0,11.0,53,0.00,,,0.00,0,WeatherCatV1.24B11,2014-01-18 06:33:00,
2014-01-18 00:34:00,35.8,20.4,29.85,SW,236,7.0,11.0,53,0.00,,,0.00,0,WeatherCatV1.24B11,2014-01-18 06:34:00,
2014-01-18 00:35:00,35.8,20.4,29.85,WSW,252,4.0,6.0,53,0.00,,,0.00,0,WeatherCatV1.24B11,2014-01-18 06:35:00,
2014-01-18 00:37:00,35.7,20.3,29.85,WSW,250,5.0,7.0,53,0.00,,,0.00,0,WeatherCatV1.24B11,2014-01-18 06:37:00,
2014-01-18 00:38:00,35.7,20.3,29.85,WSW,248,6.0,9.0,53,0.00,,,0.00,0,WeatherCatV1.24B11,2014-01-18 06:38:00,
2014-01-18 00:39:00,35.7,20.3,29.85,West,260,5.0,9.0,53,0.00,,,0.00,0,WeatherCatV1.24B11,2014-01-18 06:39:00,
2014-01-18 00:40:00,35.7,20.3,29.85,WSW,250,7.0,9.0,53,0.00,,,0.00,0,WeatherCatV1.24B11,2014-01-18 06:40:00,
2014-01-18 00:42:00,35.7,20.3,29.85,West,264,5.0,12.0,53,0.00,,,0.00,0,WeatherCatV1.24B11,2014-01-18 06:42:00,
2014-01-18 00:43:00,35.7,20.3,29.85,West,264,4.0,5.0,53,0.00,,,0.00,0,WeatherCatV1.24B11,2014-01-18 06:43:00,
2014-01-18 00:45:00,35.7,20.3,29.85,West,281,4.0,14.0,53,0.00,,,0.00,0,WeatherCatV1.24B11,2014-01-18 06:45:00,
2014-01-18 00:46:00,35.6,20.2,29.84,WNW,286,7.0,11.0,53,0.00,,,0.00,0,WeatherCatV1.24B11,2014-01-18 06:46:00,
2014-01-18 00:48:00,35.6,20.2,29.85,WNW,294,4.0,13.0,53,0.00,,,0.00,0,WeatherCatV1.24B11,2014-01-18 06:48:00,
2014-01-18 00:50:00,35.6,20.2,29.84,West,268,6.0,12.0,53,0.00,,,0.00,0,WeatherCatV1.24B11,2014-01-18 06:50:00,
2014-01-18 00:52:00,35.6,20.2,29.84,WSW,253,7.0,8.0,53,0.00,,,0.00,0,WeatherCatV1.24B11,2014-01-18 06:52:00,
2014-01-18 00:53:00,35.6,20.6,29.84,WNW,283,7.0,10.0,54,0.00,,,0.00,0,WeatherCatV1.24B11,2014-01-18 06:53:00,
2014-01-18 00:54:00,35.5,20.5,29.84,West,268,4.0,11.0,54,0.00,,,0.00,0,WeatherCatV1.24B11,2014-01-18 06:54:00,
2014-01-18 00:55:00,35.5,20.5,29.84,WSW,253,9.0,11.0,54,0.00,,,0.00,0,WeatherCatV1.24B11,2014-01-18 06:55:00,
2014-01-18 00:57:00,35.5,20.5,29.84,WNW,286,3.0,10.0,54,0.00,,,0.00,0,WeatherCatV1.24B11,2014-01-18 06:57:00,
2014-01-18 00:58:00,35.5,20.5,29.84,West,261,4.0,10.0,54,0.00,,,0.00,0,WeatherCatV1.24B11,2014-01-18 06:58:00,
2014-01-18 00:59:00,35.4,20.4,29.83,WSW,249,6.0,10.0,54,0.00,,,0.00,0,WeatherCatV1.24B11,2014-01-18 06:59:00,
2014-01-18 01:00:00,35.4,20.4,29.84,WNW,300,4.0,10.0,54,0.00,,,0.00,0,WeatherCatV1.24B11,2014-01-18 07:00:00,
2014-01-18 01:01:00,35.4,20.4,29.83,West,270,9.0,11.0,54,0.00,,,0.00,0,WeatherCatV1.24B11,2014-01-18 07:01:00,
2014-01-18 01:02:00,35.4,20.4,29.84,WSW,258,6.0,11.0,54,0.00,,,0.00,0,WeatherCatV1.24B11,2014-01-18 07:02:00,
2014-01-18 01:03:00,35.4,20.4,29.84,WSW,256,3.0,9.0,54,0.00,,,0.00,0,WeatherCatV1.24B11,2014-01-18 07:03:00,
2014-01-18 01:04:00,35.4,20.4,29.83,WSW,257,6.0,9.0,54,0.00,,,0.00,0,WeatherCatV1.24B11,2014-01-18 07:04:00,
2014-01-18 01:05:00,35.3,20.3,29.83,WSW,253,5.0,10.0,54,0.00,,,0.00,0,WeatherCatV1.24B11,2014-01-18 07:05:00,
2014-01-18 01:06:00,35.4,20.4,29.83,West,264,6.0,10.0,54,0.00,,,0.00,0,WeatherCatV1.24B11,2014-01-18 07:06:00,
2014-01-18 01:07:00,35.4,20.4,29.83,West,259,4.0,10.0,54,0.00,,,0.00,0,WeatherCatV1.24B11,2014-01-18 07:07:00,
2014-01-18 01:08:00,35.4,20.4,29.84,WNW,287,3.0,10.0,54,0.00,,,0.00,0,WeatherCatV1.24B11,2014-01-18 07:08:00,
2014-01-18 01:09:00,35.4,20.4,29.84,WNW,287,3.0,10.0,54,0.00,,,0.00,0,WeatherCatV1.24B11,2014-01-18 07:09:00,
2014-01-18 01:10:00,35.5,20.5,29.83,West,271,1.0,9.0,54,0.00,,,0.00,0,WeatherCatV1.24B11,2014-01-18 07:10:00,
2014-01-18 01:12:00,35.4,20.4,29.83,West,271,4.0,4.0,54,0.00,,,0.00,0,WeatherCatV1.24B11,2014-01-18 07:12:00,
2014-01-18 01:14:00,35.3,20.8,29.83,WSW,237,4.0,11.0,55,0.00,,,0.00,0,WeatherCatV1.24B11,2014-01-18 07:14:00,
2014-01-18 01:15:00,35.3,20.8,29.83,West,278,6.0,11.0,55,0.00,,,0.00,0,WeatherCatV1.24B11,2014-01-18 07:15:00,
2014-01-18 01:16:00,35.3,20.8,29.83,West,263,4.0,7.0,55,0.00,,,0.00,0,WeatherCatV1.24B11,2014-01-18 07:16:00,
2014-01-18 01:17:00,35.2,20.7,29.83,WSW,254,6.0,6.0,55,0.00,,,0.00,0,WeatherCatV1.24B11,2014-01-18 07:17:00,
2014-01-18 01:18:00,35.2,20.7,29.83,WSW,254,3.0,7.0,55,0.00,,,0.00,0,WeatherCatV1.24B11,2014-01-18 07:18:00,
2014-01-18 01:19:00,35.2,20.7,29.83,WSW,254,2.0,7.0,55,0.00,,,0.00,0,WeatherCatV1.24B11,2014-01-18 07:19:00,
2014-01-18 01:20:00,35.1,20.6,29.83,WSW,254,2.0,4.0,55,0.00,,,0.00,0,WeatherCatV1.24B11,2014-01-18 07:20:00,
2014-01-18 01:21:00,35.1,20.6,29.83,West,259,3.0,6.0,55,0.00,,,0.00,0,WeatherCatV1.24B11,2014-01-18 07:21:00,
2014-01-18 01:22:00,35.0,20.5,29.83,West,259,2.0,4.0,55,0.00,,,0.00,0,WeatherCatV1.24B11,2014-01-18 07:22:00,
2014-01-18 01:23:00,35.0,20.5,29.83,West,259,4.0,4.0,55,0.00,,,0.00,0,WeatherCatV1.24B11,2014-01-18 07:23:00,
2014-01-18 01:24:00,35.0,20.5,29.84,West,259,2.0,6.0,55,0.00,,,0.00,0,WeatherCatV1.24B11,2014-01-18 07:24:00,
2014-01-18 01:25:00,35.0,20.9,29.83,West,259,5.0,6.0,56,0.00,,,0.00,0,WeatherCatV1.24B11,2014-01-18 07:25:00,
2014-01-18 01:26:00,35.0,20.9,29.83,West,259,5.0,5.0,56,0.00,,,0.00,0,WeatherCatV1.24B11,2014-01-18 07:26:00,
2014-01-18 01:27:00,35.3,21.2,29.83,West,259,1.0,6.0,56,0.00,,,0.00,0,WeatherCatV1.24B11,2014-01-18 07:27:00,
2014-01-18 01:28:00,35.4,21.3,29.84,WSW,254,5.0,9.0,56,0.00,,,0.00,0,WeatherCatV1.24B11,2014-01-18 07:28:00,
2014-01-18 01:29:00,35.5,21.4,29.83,WSW,255,2.0,9.0,56,0.00,,,0.00,0,WeatherCatV1.24B11,2014-01-18 07:29:00,
2014-01-18 01:30:00,35.7,21.6,29.83,WSW,255,5.0,5.0,56,0.00,,,0.00,0,WeatherCatV1.24B11,2014-01-18 07:30:00,
2014-01-18 01:31:00,35.8,21.7,29.83,WSW,257,4.0,5.0,56,0.00,,,0.00,0,WeatherCatV1.24B11,2014-01-18 07:31:00,
2014-01-18 01:32:00,36.3,21.7,29.84,West,281,6.0,10.0,55,0.00,,,0.00,0,WeatherCatV1.24B11,2014-01-18 07:32:00,
2014-01-18 01:33:00,36.5,21.9,29.84,WNW,300,8.0,11.0,55,0.00,,,0.00,0,WeatherCatV1.24B11,2014-01-18 07:33:00,
2014-01-18 01:34:00,36.7,22.1,29.84,SW,235,4.0,13.0,55,0.00,,,0.00,0,WeatherCatV1.24B11,2014-01-18 07:34:00,
2014-01-18 01:35:00,37.0,22.4,29.84,WNW,294,12.0,13.0,55,0.00,,,0.00,0,WeatherCatV1.24B11,2014-01-18 07:35:00,
2014-01-18 01:36:00,37.2,22.5,29.84,West,281,4.0,13.0,55,0.00,,,0.00,0,WeatherCatV1.24B11,2014-01-18 07:36:00,
2014-01-18 01:39:00,37.6,22.0,29.84,West,266,3.0,14.0,53,0.00,,,0.00,0,WeatherCatV1.24B11,2014-01-18 07:39:00,
2014-01-18 01:40:00,37.7,22.1,29.84,WSW,249,7.0,13.0,53,0.00,,,0.00,0,WeatherCatV1.24B11,2014-01-18 07:40:00,
2014-01-18 01:41:00,37.8,22.2,29.84,WNW,290,10.0,13.0,53,0.00,,,0.00,0,WeatherCatV1.24B11,2014-01-18 07:41:00,
2014-01-18 01:44:00,37.8,22.2,29.84,WNW,283,6.0,7.0,53,0.00,,,0.00,0,WeatherCatV1.24B11,2014-01-18 07:44:00,
2014-01-18 01:46:00,37.8,22.2,29.83,West,277,2.0,6.0,53,0.00,,,0.00,0,WeatherCatV1.24B11,2014-01-18 07:46:00,
2014-01-18 01:49:00,37.6,22.0,29.83,West,271,4.0,14.0,53,0.00,,,0.00,0,WeatherCatV1.24B11,2014-01-18 07:49:00,
2014-01-18 01:50:00,37.6,22.0,29.83,West,271,3.0,14.0,53,0.00,,,0.00,0,WeatherCatV1.24B11,2014-01-18 07:50:00,
2014-01-18 01:51:00,37.6,22.0,29.83,WNW,284,6.0,13.0,53,0.00,,,0.00,0,WeatherCatV1.24B11,2014-01-18 07:51:00,
2014-01-18 01:54:00,37.7,22.1,29.83,West,260,9.0,15.0,53,0.00,,,0.00,0,WeatherCatV1.24B11,2014-01-18 07:54:00,
2014-01-18 01:55:00,37.7,22.1,29.83,West,281,11.0,11.0,53,0.00,,,0.00,0,WeatherCatV1.24B11,2014-01-18 07:55:00,
2014-01-18 01:56:00,37.7,22.1,29.83,WNW,288,7.0,14.0,53,0.00,,,0.00,0,WeatherCatV1.24B11,2014-01-18 07:56:00,
2014-01-18 01:57:00,37.7,22.1,29.83,WNW,287,6.0,9.0,53,0.00,,,0.00,0,WeatherCatV1.24B11,2014-01-18 07:57:00,
2014-01-18 02:00:00,37.6,22.0,29.83,West,276,5.0,10.0,53,0.00,,,0.00,0,WeatherCatV1.24B11,2014-01-18 08:00:00,
2014-01-18 02:01:00,37.6,22.0,29.83,West,272,3.0,7.0,53,0.00,,,0.00,0,WeatherCatV1.24B11,2014-01-18 08:01:00,
2014-01-18 02:02:00,37.5,21.9,29.83,West,277,5.0,9.0,53,0.00,,,0.00,0,WeatherCatV1.24B11,2014-01-18 08:02:00,
2014-01-18 02:03:00,37.5,21.9,29.83,West,269,5.0,9.0,53,0.00,,,0.00,0,WeatherCatV1.24B11,2014-01-18 08:03:00,
2014-01-18 02:05:00,37.4,21.9,29.83,West,277,7.0,11.0,53,0.00,,,0.00,0,WeatherCatV1.24B11,2014-01-18 08:05:00,
2014-01-18 02:06:00,37.5,21.9,29.83,WNW,283,7.0,11.0,53,0.00,,,0.00,0,WeatherCatV1.24B11,2014-01-18 08:06:00,
2014-01-18 02:07:00,37.5,21.9,29.83,WSW,238,11.0,11.0,53,0.00,,,0.00,0,WeatherCatV1.24B11,2014-01-18 08:07:00,
2014-01-18 02:08:00,37.5,21.9,29.83,West,262,6.0,11.0,53,0.00,,,0.00,0,WeatherCatV1.24B11,2014-01-18 08:08:00,
2014-01-18 02:10:00,37.6,22.5,29.83,West,273,7.0,12.0,54,0.00,,,0.00,0,WeatherCatV1.24B11,2014-01-18 08:10:00,
2014-01-18 02:11:00,37.6,22.5,29.83,WSW,250,5.0,12.0,54,0.00,,,0.00,0,WeatherCatV1.24B11,2014-01-18 08:11:00,
2014-01-18 02:12:00,37.6,22.0,29.83,WNW,293,6.0,10.0,53,0.00,,,0.00,0,WeatherCatV1.24B11,2014-01-18 08:12:00,
2014-01-18 02:13:00,37.6,22.0,29.83,West,279,6.0,10.0,53,0.00,,,0.00,0,WeatherCatV1.24B11,2014-01-18 08:13:00,
2014-01-18 02:15:00,37.7,22.1,29.83,West,280,5.0,14.0,53,0.00,,,0.00,0,WeatherCatV1.24B11,2014-01-18 08:15:00,
2014-01-18 02:16:00,37.7,22.1,29.83,West,279,5.0,14.0,53,0.00,,,0.00,0,WeatherCatV1.24B11,2014-01-18 08:16:00,
2014-01-18 02:17:00,37.7,22.6,29.83,WNW,295,4.0,13.0,54,0.00,,,0.00,0,WeatherCatV1.24B11,2014-01-18 08:17:00,
2014-01-18 02:18:00,37.7,22.1,29.83,WNW,290,7.0,13.0,53,0.00,,,0.00,0,WeatherCatV1.24B11,2014-01-18 08:18:00,
2014-01-18 02:19:00,37.7,22.1,29.83,WNW,288,3.0,13.0,53,0.00,,,0.00,0,WeatherCatV1.24B11,2014-01-18 08:19:00,
2014-01-18 02:20:00,37.7,22.6,29.83,West,265,5.0,10.0,54,0.00,,,0.00,0,WeatherCatV1.24B11,2014-01-18 08:20:00,
2014-01-18 02:21:00,37.7,22.6,29.83,West,263,3.0,11.0,54,0.00,,,0.00,0,WeatherCatV1.24B11,2014-01-18 08:21:00,
2014-01-18 02:22:00,37.8,22.7,29.83,West,271,5.0,14.0,54,0.00,,,0.00,0,WeatherCatV1.24B11,2014-01-18 08:22:00,
2014-01-18 02:24:00,37.8,22.2,29.83,WNW,288,5.0,14.0,53,0.00,,,0.00,0,WeatherCatV1.24B11,2014-01-18 08:24:00,
2014-01-18 02:25:00,37.8,22.2,29.83,West,259,5.0,11.0,53,0.00,,,0.00,0,WeatherCatV1.24B11,2014-01-18 08:25:00,
2014-01-18 02:26:00,37.8,22.2,29.83,West,259,3.0,11.0,53,0.00,,,0.00,0,WeatherCatV1.24B11,2014-01-18 08:26:00,
2014-01-18 02:28:00,37.7,22.1,29.83,West,273,4.0,11.0,53,0.00,,,0.00,0,WeatherCatV1.24B11,2014-01-18 08:28:00,
2014-01-18 02:29:00,37.7,22.6,29.83,WNW,283,4.0,11.0,54,0.00,,,0.00,0,WeatherCatV1.24B11,2014-01-18 08:29:00,
2014-01-18 02:30:00,37.6,22.5,29.83,WSW,247,3.0,10.0,54,0.00,,,0.00,0,WeatherCatV1.24B11,2014-01-18 08:30:00,
2014-01-18 02:31:00,37.6,22.5,29.83,West,273,5.0,12.0,54,0.00,,,0.00,0,WeatherCatV1.24B11,2014-01-18 08:31:00,
2014-01-18 02:33:00,37.5,22.4,29.83,WSW,242,5.0,12.0,54,0.00,,,0.00,0,WeatherCatV1.24B11,2014-01-18 08:33:00,
2014-01-18 02:34:00,37.4,22.3,29.83,West,280,6.0,8.0,54,0.00,,,0.00,0,WeatherCatV1.24B11,2014-01-18 08:34:00,
2014-01-18 02:35:00,37.4,22.3,29.83,WNW,283,4.0,10.0,54,0.00,,,0.00,0,WeatherCatV1.24B11,2014-01-18 08:35:00,
2014-01-18 02:36:00,37.3,22.2,29.83,WSW,255,10.0,12.0,54,0.00,,,0.00,0,WeatherCatV1.24B11,2014-01-18 08:36:00,
2014-01-18 02:37:00,37.3,22.2,29.83,West,261,5.0,12.0,54,0.00,,,0.00,0,WeatherCatV1.24B11,2014-01-18 08:37:00,
2014-01-18 02:38:00,37.4,22.3,29.83,West,261,3.0,12.0,54,0.00,,,0.00,0,WeatherCatV1.24B11,2014-01-18 08:38:00,
2014-01-18 02:39:00,37.3,22.2,29.83,West,266,7.0,11.0,54,0.00,,,0.00,0,WeatherCatV1.24B11,2014-01-18 08:39:00,
2014-01-18 02:40:00,37.3,22.2,29.83,WNW,300,6.0,11.0,54,0.00,,,0.00,0,WeatherCatV1.24B11,2014-01-18 08:40:00,
2014-01-18 02:42:00,37.3,22.2,29.83,West,272,5.0,12.0,54,0.00,,,0.00,0,WeatherCatV1.24B11,2014-01-18 08:42:00,
2014-01-18 02:43:00,37.3,22.2,29.83,West,280,5.0,9.0,54,0.00,,,0.00,0,WeatherCatV1.24B11,2014-01-18 08:43:00,
2014-01-18 02:44:00,37.4,22.3,29.83,WSW,247,6.0,10.0,54,0.00,,,0.00,0,WeatherCatV1.24B11,2014-01-18 08:44:00,
2014-01-18 02:46:00,37.4,22.3,29.82,WNW,288,4.0,12.0,54,0.00,,,0.00,0,WeatherCatV1.24B11,2014-01-18 08:46:00,
2014-01-18 02:47:00,37.4,22.3,29.82,WNW,288,3.0,10.0,54,0.00,,,0.00,0,WeatherCatV1.24B11,2014-01-18 08:47:00,
2014-01-18 02:48:00,37.3,22.2,29.82,WNW,283,11.0,11.0,54,0.00,,,0.00,0,WeatherCatV1.24B11,2014-01-18 08:48:00,
2014-01-18 02:49:00,37.4,22.3,29.82,WSW,254,3.0,12.0,54,0.00,,,0.00,0,WeatherCatV1.24B11,2014-01-18 08:49:00,
2014-01-18 02:51:00,37.4,22.3,29.82,WSW,256,8.0,18.0,54,0.00,,,0.00,0,WeatherCatV1.24B11,2014-01-18 08:51:00,
2014-01-18 02:52:00,37.5,22.4,29.83,West,261,9.0,18.0,54,0.00,,,0.00,0,WeatherCatV1.24B11,2014-01-18 08:52:00,
2014-01-18 02:53:00,37.5,22.4,29.82,West,275,4.0,15.0,54,0.00,,,0.00,0,WeatherCatV1.24B11,2014-01-18 08:53:00,
2014-01-18 02:54:00,37.6,22.5,29.82,West,262,7.0,10.0,54,0.00,,,0.00,0,WeatherCatV1.24B11,2014-01-18 08:54:00,
2014-01-18 02:56:00,37.7,22.6,29.82,West,267,6.0,13.0,54,0.00,,,0.00,0,WeatherCatV1.24B11,2014-01-18 08:56:00,
2014-01-18 02:57:00,37.7,22.6,29.82,WNW,288,3.0,10.0,54,0.00,,,0.00,0,WeatherCatV1.24B11,2014-01-18 08:57:00,
2014-01-18 02:58:00,37.7,22.6,29.82,WNW,288,2.0,9.0,54,0.00,,,0.00,0,WeatherCatV1.24B11,2014-01-18 08:58:00,
2014-01-18 02:59:00,37.7,22.6,29.82,WNW,285,7.0,11.0,54,0.00,,,0.00,0,WeatherCatV1.24B11,2014-01-18 08:59:00,
2014-01-18 03:00:00,37.7,22.6,29.82,West,275,6.0,11.0,54,0.00,,,0.00,0,WeatherCatV1.24B11,2014-01-18 09:00:00,
2014-01-18 03:01:00,37.8,22.7,29.82,WSW,252,5.0,13.0,54,0.00,,,0.00,0,WeatherCatV1.24B11,2014-01-18 09:01:00,
2014-01-18 03:03:00,37.8,22.7,29.81,WNW,287,10.0,13.0,54,0.00,,,0.00,0,WeatherCatV1.24B11,2014-01-18 09:03:00,
2014-01-18 03:04:00,37.9,22.8,29.81,West,275,3.0,10.0,54,0.00,,,0.00,0,WeatherCatV1.24B11,2014-01-18 09:04:00,
2014-01-18 03:05:00,37.9,22.8,29.81,WNW,291,6.0,10.0,54,0.00,,,0.00,0,WeatherCatV1.24B11,2014-01-18 09:05:00,
2014-01-18 03:06:00,37.9,22.8,29.82,WNW,283,4.0,8.0,54,0.00,,,0.00,0,WeatherCatV1.24B11,2014-01-18 09:06:00,
2014-01-18 03:08:00,37.9,22.8,29.82,West,277,4.0,10.0,54,0.00,,,0.00,0,WeatherCatV1.24B11,2014-01-18 09:08:00,
2014-01-18 03:09:00,37.8,22.7,29.81,West,277,5.0,9.0,54,0.00,,,0.00,0,WeatherCatV1.24B11,2014-01-18 09:09:00,
2014-01-18 03:10:00,37.8,22.7,29.81,West,277,3.0,9.0,54,0.00,,,0.00,0,WeatherCatV1.24B11,2014-01-18 09:10:00,
2014-01-18 03:11:00,37.8,22.7,29.82,WNW,286,4.0,5.0,54,0.00,,,0.00,0,WeatherCatV1.24B11,2014-01-18 09:11:00,
2014-01-18 03:13:00,37.7,22.6,29.82,West,271,4.0,6.0,54,0.00,,,0.00,0,WeatherCatV1.24B11,2014-01-18 09:13:00,
2014-01-18 03:14:00,37.7,22.6,29.82,West,270,3.0,6.0,54,0.00,,,0.00,0,WeatherCatV1.24B11,2014-01-18 09:14:00,
2014-01-18 03:15:00,37.7,22.6,29.82,West,270,3.0,6.0,54,0.00,,,0.00,0,WeatherCatV1.24B11,2014-01-18 09:15:00,
2014-01-18 03:17:00,37.6,22.5,29.82,West,271,5.0,7.0,54,0.00,,,0.00,0,WeatherCatV1.24B11,2014-01-18 09:17:00,
2014-01-18 03:18:00,37.5,22.4,29.82,West,272,4.0,7.0,54,0.00,,,0.00,0,WeatherCatV1.24B11,2014-01-18 09:18:00,
2014-01-18 03:20:00,37.5,22.8,29.82,West,271,4.0,6.0,55,0.00,,,0.00,0,WeatherCatV1.24B11,2014-01-18 09:20:00,
2014-01-18 03:22:00,37.4,22.7,29.82,West,271,3.0,5.0,55,0.00,,,0.00,0,WeatherCatV1.24B11,2014-01-18 09:22:00,
2014-01-18 03:24:00,37.4,22.7,29.82,WNW,284,3.0,9.0,55,0.00,,,0.00,0,WeatherCatV1.24B11,2014-01-18 09:24:00,
2014-01-18 03:25:00,37.3,22.6,29.82,WNW,283,3.0,6.0,55,0.00,,,0.00,0,WeatherCatV1.24B11,2014-01-18 09:25:00,
2014-01-18 03:26:00,37.3,22.6,29.82,WNW,283,6.0,6.0,55,0.00,,,0.00,0,WeatherCatV1.24B11,2014-01-18 09:26:00,
2014-01-18 03:28:00,37.3,22.6,29.82,West,263,4.0,9.0,55,0.00,,,0.00,0,WeatherCatV1.24B11,2014-01-18 09:28:00,
2014-01-18 03:29:00,37.3,22.6,29.82,West,263,1.0,6.0,55,0.00,,,0.00,0,WeatherCatV1.24B11,2014-01-18 09:29:00,
2014-01-18 03:30:00,37.3,22.6,29.82,West,263,3.0,6.0,55,0.00,,,0.00,0,WeatherCatV1.24B11,2014-01-18 09:30:00,
2014-01-18 03:31:00,37.3,22.6,29.83,West,263,3.0,6.0,55,0.00,,,0.00,0,WeatherCatV1.24B11,2014-01-18 09:31:00,
2014-01-18 03:33:00,37.2,22.5,29.82,West,265,4.0,5.0,55,0.00,,,0.00,0,WeatherCatV1.24B11,2014-01-18 09:33:00,
2014-01-18 03:34:00,37.1,22.5,29.83,West,277,4.0,9.0,55,0.00,,,0.00,0,WeatherCatV1.24B11,2014-01-18 09:34:00,
2014-01-18 03:35:00,37.2,22.5,29.82,West,277,2.0,9.0,55,0.00,,,0.00,0,WeatherCatV1.24B11,2014-01-18 09:35:00,
2014-01-18 03:36:00,37.2,22.5,29.82,West,277,3.0,4.0,55,0.00,,,0.00,0,WeatherCatV1.24B11,2014-01-18 09:36:00,
2014-01-18 03:38:00,37.2,22.5,29.82,West,277,3.0,6.0,55,0.00,,,0.00,0,WeatherCatV1.24B11,2014-01-18 09:38:00,
2014-01-18 03:39:00,37.1,22.9,29.82,WNW,287,3.0,7.0,56,0.00,,,0.00,0,WeatherCatV1.24B11,2014-01-18 09:39:00,
2014-01-18 03:40:00,37.1,22.9,29.82,WNW,287,3.0,5.0,56,0.00,,,0.00,0,WeatherCatV1.24B11,2014-01-18 09:40:00,
2014-01-18 03:41:00,37.1,22.9,29.82,WNW,284,3.0,6.0,56,0.00,,,0.00,0,WeatherCatV1.24B11,2014-01-18 09:41:00,
2014-01-18 03:42:00,37.0,22.8,29.83,WNW,292,5.0,7.0,56,0.00,,,0.00,0,WeatherCatV1.24B11,2014-01-18 09:42:00,
2014-01-18 03:43:00,37.1,22.9,29.82,WNW,287,3.0,12.0,56,0.00,,,0.00,0,WeatherCatV1.24B11,2014-01-18 09:43:00,
2014-01-18 03:44:00,37.1,22.9,29.82,WNW,287,6.0,12.0,56,0.00,,,0.00,0,WeatherCatV1.24B11,2014-01-18 09:44:00,
2014-01-18 03:46:00,37.3,23.1,29.82,West,279,3.0,9.0,56,0.00,,,0.00,0,WeatherCatV1.24B11,2014-01-18 09:46:00,
2014-01-18 03:47:00,37.4,23.1,29.83,West,259,3.0,11.0,56,0.00,,,0.00,0,WeatherCatV1.24B11,2014-01-18 09:47:00,
2014-01-18 03:48:00,37.5,23.2,29.83,West,276,6.0,11.0,56,0.00,,,0.00,0,WeatherCatV1.24B11,2014-01-18 09:48:00,
2014-01-18 03:49:00,37.5,23.2,29.83,WNW,284,5.0,7.0,56,0.00,,,0.00,0,WeatherCatV1.24B11,2014-01-18 09:49:00,
2014-01-18 03:51:00,37.6,22.9,29.82,West,273,3.0,7.0,55,0.00,,,0.00,0,WeatherCatV1.24B11,2014-01-18 09:51:00,
2014-01-18 03:53:00,37.7,23.4,29.83,West,280,3.0,9.0,56,0.00,,,0.00,0,WeatherCatV1.24B11,2014-01-18 09:53:00,
2014-01-18 03:54:00,37.8,23.1,29.83,West,279,4.0,7.0,55,0.00,,,0.00,0,WeatherCatV1.24B11,2014-01-18 09:54:00,
2014-01-18 03:56:00,38.0,23.3,29.82,WNW,292,6.0,11.0,55,0.00,,,0.00,0,WeatherCatV1.24B11,2014-01-18 09:56:00,
2014-01-18 03:57:00,38.1,23.4,29.82,NW,304,4.0,11.0,55,0.00,,,0.00,0,WeatherCatV1.24B11,2014-01-18 09:57:00,
2014-01-18 03:58:00,38.2,23.5,29.82,WNW,290,6.0,8.0,55,0.00,,,0.00,0,WeatherCatV1.24B11,2014-01-18 09:58:00,
2014-01-18 03:59:00,38.4,23.7,29.82,WNW,287,4.0,8.0,55,0.00,,,0.00,0,WeatherCatV1.24B11,2014-01-18 09:59:00,
2014-01-18 04:01:00,38.5,23.8,29.82,WNW,287,5.0,10.0,55,0.00,,,0.00,0,WeatherCatV1.24B11,2014-01-18 10:01:00,
2014-01-18 04:02:00,38.6,23.9,29.82,West,272,9.0,12.0,55,0.00,,,0.00,0,WeatherCatV1.24B11,2014-01-18 10:02:00,
2014-01-18 04:03:00,38.7,23.5,29.82,WNW,287,6.0,10.0,54,0.00,,,0.00,0,WeatherCatV1.24B11,2014-01-18 10:03:00,
2014-01-18 04:04:00,38.8,23.6,29.82,WNW,296,2.0,9.0,54,0.00,,,0.00,0,WeatherCatV1.24B11,2014-01-18 10:04:00,
2014-01-18 04:07:00,38.9,23.7,29.82,WNW,288,7.0,10.0,54,0.00,,,0.00,0,WeatherCatV1.24B11,2014-01-18 10:07:00,
2014-01-18 04:08:00,39.0,23.8,29.82,WNW,292,3.0,11.0,54,0.00,,,0.00,0,WeatherCatV1.24B11,2014-01-18 10:08:00,
2014-01-18 04:09:00,39.0,23.8,29.82,WNW,286,2.0,11.0,54,0.00,,,0.00,0,WeatherCatV1.24B11,2014-01-18 10:09:00,
2014-01-18 04:10:00,39.1,23.9,29.82,West,267,8.0,9.0,54,0.00,,,0.00,0,WeatherCatV1.24B11,2014-01-18 10:10:00,
2014-01-18 04:12:00,39.1,23.9,29.82,WNW,286,6.0,6.0,54,0.00,,,0.00,0,WeatherCatV1.24B11,2014-01-18 10:12:00,
2014-01-18 04:13:00,39.1,23.9,29.82,WNW,286,3.0,6.0,54,0.00,,,0.00,0,WeatherCatV1.24B11,2014-01-18 10:13:00,
2014-01-18 04:14:00,39.1,23.9,29.82,WNW,283,4.0,7.0,54,0.00,,,0.00,0,WeatherCatV1.24B11,2014-01-18 10:14:00,
2014-01-18 04:15:00,39.1,23.9,29.82,West,269,3.0,7.0,54,0.00,,,0.00,0,WeatherCatV1.24B11,2014-01-18 10:15:00,
2014-01-18 04:17:00,39.1,23.9,29.82,West,271,4.0,7.0,54,0.00,,,0.00,0,WeatherCatV1.24B11,2014-01-18 10:17:00,
2014-01-18 04:18:00,39.0,23.8,29.82,West,271,7.0,8.0,54,0.00,,,0.00,0,WeatherCatV1.24B11,2014-01-18 10:18:00,
2014-01-18 04:19:00,38.9,23.7,29.82,West,272,2.0,8.0,54,0.00,,,0.00,0,WeatherCatV1.24B11,2014-01-18 10:19:00,
2014-01-18 04:20:00,38.9,23.7,29.82,West,272,7.0,7.0,54,0.00,,,0.00,0,WeatherCatV1.24B11,2014-01-18 10:20:00,
2014-01-18 04:22:00,38.7,23.5,29.82,West,272,4.0,7.0,54,0.00,,,0.00,0,WeatherCatV1.24B11,2014-01-18 10:22:00,
2014-01-18 04:23:00,38.6,23.4,29.82,West,269,5.0,8.0,54,0.00,,,0.00,0,WeatherCatV1.24B11,2014-01-18 10:23:00,
2014-01-18 04:24:00,38.6,23.4,29.82,West,269,5.0,8.0,54,0.00,,,0.00,0,WeatherCatV1.24B11,2014-01-18 10:24:00,
2014-01-18 04:25:00,38.5,23.3,29.82,West,277,4.0,6.0,54,0.00,,,0.00,0,WeatherCatV1.24B11,2014-01-18 10:25:00,
2014-01-18 04:27:00,38.4,23.2,29.82,WNW,298,5.0,8.0,54,0.00,,,0.00,0,WeatherCatV1.24B11,2014-01-18 10:27:00,
2014-01-18 04:28:00,38.4,23.2,29.82,WNW,298,5.0,8.0,54,0.00,,,0.00,0,WeatherCatV1.24B11,2014-01-18 10:28:00,
2014-01-18 04:29:00,38.4,23.7,29.82,WNW,298,1.0,6.0,55,0.00,,,0.00,0,WeatherCatV1.24B11,2014-01-18 10:29:00,
2014-01-18 04:30:00,38.3,23.6,29.82,West,261,4.0,7.0,55,0.00,,,0.00,0,WeatherCatV1.24B11,2014-01-18 10:30:00,
2014-01-18 04:31:00,38.3,23.6,29.82,West,264,3.0,7.0,55,0.00,,,0.00,0,WeatherCatV1.24B11,2014-01-18 10:31:00,
2014-01-18 04:33:00,38.3,23.6,29.82,WNW,296,5.0,7.0,55,0.00,,,0.00,0,WeatherCatV1.24B11,2014-01-18 10:33:00,
2014-01-18 04:34:00,38.3,23.6,29.82,WSW,257,4.0,10.0,55,0.00,,,0.00,0,WeatherCatV1.24B11,2014-01-18 10:34:00,
2014-01-18 04:35:00,38.4,23.7,29.82,West,280,3.0,10.0,55,0.00,,,0.00,0,WeatherCatV1.24B11,2014-01-18 10:35:00,
2014-01-18 04:36:00,38.4,23.7,29.82,West,281,11.0,11.0,55,0.00,,,0.00,0,WeatherCatV1.24B11,2014-01-18 10:36:00,
2014-01-18 04:38:00,38.6,23.9,29.82,West,280,3.0,11.0,55,0.00,,,0.00,0,WeatherCatV1.24B11,2014-01-18 10:38:00,
2014-01-18 04:39:00,38.7,23.9,29.82,WNW,282,5.0,12.0,55,0.00,,,0.00,0,WeatherCatV1.24B11,2014-01-18 10:39:00,
2014-01-18 04:40:00,38.8,23.6,29.82,WNW,283,3.0,12.0,54,0.00,,,0.00,0,WeatherCatV1.24B11,2014-01-18 10:40:00,
2014-01-18 04:41:00,38.9,23.7,29.82,WSW,254,7.0,7.0,54,0.00,,,0.00,0,WeatherCatV1.24B11,2014-01-18 10:41:00,
2014-01-18 04:43:00,39.0,23.8,29.82,WNW,294,4.0,9.0,54,0.00,,,0.00,0,WeatherCatV1.24B11,2014-01-18 10:43:00,
2014-01-18 04:44:00,39.1,23.9,29.82,West,275,5.0,7.0,54,0.00,,,0.00,0,WeatherCatV1.24B11,2014-01-18 10:44:00,
2014-01-18 04:46:00,39.1,23.9,29.82,WNW,293,6.0,9.0,54,0.00,,,0.00,0,WeatherCatV1.24B11,2014-01-18 10:46:00,
2014-01-18 04:48:00,39.3,24.1,29.82,WSW,254,7.0,13.0,54,0.00,,,0.00,0,WeatherCatV1.24B11,2014-01-18 10:48:00,
2014-01-18 04:49:00,39.3,23.6,29.82,NW,323,8.0,9.0,53,0.00,,,0.00,0,WeatherCatV1.24B11,2014-01-18 10:49:00,
2014-01-18 04:51:00,39.5,23.8,29.82,WNW,296,5.0,15.0,53,0.00,,,0.00,0,WeatherCatV1.24B11,2014-01-18 10:51:00,
2014-01-18 04:52:00,39.5,23.8,29.82,WNW,283,9.0,15.0,53,0.00,,,0.00,0,WeatherCatV1.24B11,2014-01-18 10:52:00,
2014-01-18 04:53:00,39.6,23.9,29.82,NW,309,5.0,11.0,53,0.00,,,0.00,0,WeatherCatV1.24B11,2014-01-18 10:53:00,
2014-01-18 04:54:00,39.6,23.9,29.82,NW,308,4.0,11.0,53,0.00,,,0.00,0,WeatherCatV1.24B11,2014-01-18 10:54:00,
2014-01-18 04:56:00,39.7,24.0,29.82,WNW,290,5.0,9.0,53,0.00,,,0.00,0,WeatherCatV1.24B11,2014-01-18 10:56:00,
2014-01-18 04:57:00,39.7,24.0,29.81,West,261,5.0,11.0,53,0.00,,,0.00,0,WeatherCatV1.24B11,2014-01-18 10:57:00,
2014-01-18 04:59:00,39.8,24.1,29.81,WNW,287,5.0,15.0,53,0.00,,,0.00,0,WeatherCatV1.24B11,2014-01-18 10:59:00,
2014-01-18 05:00:00,39.9,24.2,29.81,NW,309,8.0,11.0,53,0.00,,,0.00,0,WeatherCatV1.24B11,2014-01-18 11:00:00,
2014-01-18 05:01:00,40.0,24.3,29.81,West,267,7.0,14.0,53,0.00,,,0.00,0,WeatherCatV1.24B11,2014-01-18 11:01:00,
2014-01-18 05:02:00,40.1,24.4,29.81,WNW,291,6.0,11.0,53,0.00,,,0.00,0,WeatherCatV1.24B11,2014-01-18 11:02:00,
2014-01-18 05:04:00,40.2,24.5,29.81,WNW,300,10.0,14.0,53,0.00,,,0.00,0,WeatherCatV1.24B11,2014-01-18 11:04:00,
2014-01-18 05:05:00,40.2,24.0,29.81,WNW,294,6.0,14.0,52,0.00,,,0.00,0,WeatherCatV1.24B11,2014-01-18 11:05:00,
2014-01-18 05:06:00,40.2,24.0,29.81,West,279,8.0,11.0,52,0.00,,,0.00,0,WeatherCatV1.24B11,2014-01-18 11:06:00,
2014-01-18 05:07:00,40.2,24.0,29.82,NW,317,12.0,12.0,52,0.00,,,0.00,0,WeatherCatV1.24B11,2014-01-18 11:07:00,
2014-01-18 05:09:00,40.1,24.4,29.82,WNW,286,7.0,12.0,53,0.00,,,0.00,0,WeatherCatV1.24B11,2014-01-18 11:09:00,
2014-01-18 05:10:00,40.1,24.4,29.82,WNW,302,6.0,11.0,53,0.00,,,0.00,0,WeatherCatV1.24B11,2014-01-18 11:10:00,
2014-01-18 05:12:00,40.1,24.4,29.82,WNW,288,11.0,15.0,53,0.00,,,0.00,0,WeatherCatV1.24B11,2014-01-18 11:12:00,
2014-01-18 05:14:00,40.2,24.5,29.82,WNW,300,4.0,13.0,53,0.00,,,0.00,0,WeatherCatV1.24B11,2014-01-18 11:14:00,
2014-01-18 05:15:00,40.2,24.5,29.82,WNW,295,11.0,11.0,53,0.00,,,0.00,0,WeatherCatV1.24B11,2014-01-18 11:15:00,
2014-01-18 05:17:00,40.2,24.5,29.82,WNW,290,10.0,11.0,53,0.00,,,0.00,0,WeatherCatV1.24B11,2014-01-18 11:17:00,
2014-01-18 05:19:00,40.3,24.5,29.83,WNW,296,9.0,16.0,53,0.00,,,0.00,0,WeatherCatV1.24B11,2014-01-18 11:19:00,
2014-01-18 05:20:00,40.3,24.5,29.83,WNW,296,7.0,14.0,53,0.00,,,0.00,0,WeatherCatV1.24B11,2014-01-18 11:20:00,
2014-01-18 05:22:00,40.5,24.7,29.82,WNW,291,15.0,15.0,53,0.00,,,0.00,0,WeatherCatV1.24B11,2014-01-18 11:22:00,
2014-01-18 05:23:00,40.5,24.7,29.82,West,281,12.0,15.0,53,0.00,,,0.00,0,WeatherCatV1.24B11,2014-01-18 11:23:00,
2014-01-18 05:24:00,40.8,25.0,29.82,WNW,292,10.0,17.0,53,0.00,,,0.00,0,WeatherCatV1.24B11,2014-01-18 11:24:00,
2014-01-18 05:25:00,40.8,25.0,29.82,West,269,12.0,14.0,53,0.00,,,0.00,0,WeatherCatV1.24B11,2014-01-18 11:25:00,
2014-01-18 05:28:00,41.3,25.5,29.82,NW,306,12.0,16.0,53,0.00,,,0.00,0,WeatherCatV1.24B11,2014-01-18 11:28:00,
2014-01-18 05:30:00,41.6,25.8,29.82,WNW,296,10.0,18.0,53,0.00,,,0.00,0,WeatherCatV1.24B11,2014-01-18 11:30:00,
2014-01-18 05:31:00,41.6,25.8,29.82,West,272,11.0,14.0,53,0.00,,,0.00,0,WeatherCatV1.24B11,2014-01-18 11:31:00,
2014-01-18 05:33:00,41.9,25.6,29.82,WNW,295,6.0,16.0,52,0.00,,,0.00,0,WeatherCatV1.24B11,2014-01-18 11:33:00,
2014-01-18 05:34:00,41.9,25.6,29.82,WNW,302,4.0,11.0,52,0.00,,,0.00,0,WeatherCatV1.24B11,2014-01-18 11:34:00,
2014-01-18 05:35:00,42.0,25.7,29.82,WNW,294,9.0,14.0,52,0.00,,,0.00,0,WeatherCatV1.24B11,2014-01-18 11:35:00,
2014-01-18 05:36:00,42.0,25.7,29.82,WNW,295,6.0,14.0,52,0.00,,,0.00,0,WeatherCatV1.24B11,2014-01-18 11:36:00,
2014-01-18 05:38:00,42.0,25.7,29.82,WNW,301,12.0,14.0,52,0.00,,,0.00,0,WeatherCatV1.24B11,2014-01-18 11:38:00,
2014-01-18 05:40:00,42.1,25.8,29.82,West,275,18.0,18.0,52,0.00,,,0.00,0,WeatherCatV1.24B11,2014-01-18 11:40:00,
2014-01-18 05:41:00,42.1,25.8,29.82,NW,306,7.0,18.0,52,0.00,,,0.00,0,WeatherCatV1.24B11,2014-01-18 11:41:00,
2014-01-18 05:43:00,42.2,25.9,29.82,WNW,301,5.0,21.0,52,0.00,,,0.00,0,WeatherCatV1.24B11,2014-01-18 11:43:00,
2014-01-18 05:45:00,42.1,25.8,29.82,WNW,293,11.0,15.0,52,0.00,,,0.00,0,WeatherCatV1.24B11,2014-01-18 11:45:00,
2014-01-18 05:46:00,42.0,25.7,29.82,WNW,291,10.0,15.0,52,0.00,,,0.00,0,WeatherCatV1.24B11,2014-01-18 11:46:00,
2014-01-18 05:49:00,41.9,25.6,29.83,WNW,288,6.0,13.0,52,0.00,,,0.00,0,WeatherCatV1.24B11,2014-01-18 11:49:00,
2014-01-18 05:50:00,41.9,25.6,29.83,West,279,5.0,15.0,52,0.00,,,0.00,0,WeatherCatV1.24B11,2014-01-18 11:50:00,
2014-01-18 05:51:00,41.9,25.6,29.83,WNW,290,15.0,15.0,52,0.00,,,0.00,0,WeatherCatV1.24B11,2014-01-18 11:51:00,
2014-01-18 05:55:00,41.9,25.6,29.82,WNW,292,12.0,17.0,52,0.00,,,0.00,0,WeatherCatV1.24B11,2014-01-18 11:55:00,
2014-01-18 05:56:00,41.9,25.6,29.83,WNW,294,5.0,17.0,52,0.00,,,0.00,0,WeatherCatV1.24B11,2014-01-18 11:56:00,
2014-01-18 05:57:00,41.8,25.5,29.82,West,276,15.0,15.0,52,0.00,,,0.00,0,WeatherCatV1.24B11,2014-01-18 11:57:00,
2014-01-18 06:00:00,41.8,25.9,29.83,NW,310,5.0,17.0,53,0.00,,,0.00,0,WeatherCatV1.24B11,2014-01-18 12:00:00,
2014-01-18 06:01:00,41.7,25.9,29.83,North,355,17.0,17.0,53,0.00,,,0.00,0,WeatherCatV1.24B11,2014-01-18 12:01:00,
2014-01-18 06:02:00,41.7,25.9,29.83,NW,310,10.0,17.0,53,0.00,,,0.00,0,WeatherCatV1.24B11,2014-01-18 12:02:00,
2014-01-18 06:05:00,41.6,25.8,29.83,WNW,298,6.0,14.0,53,0.00,,,0.00,0,WeatherCatV1.24B11,2014-01-18 12:05:00,
2014-01-18 06:06:00,41.6,25.8,29.82,NW,313,8.0,13.0,53,0.00,,,0.00,0,WeatherCatV1.24B11,2014-01-18 12:06:00,
2014-01-18 06:07:00,41.6,25.8,29.83,NW,306,5.0,11.0,53,0.00,,,0.00,0,WeatherCatV1.24B11,2014-01-18 12:07:00,
2014-01-18 06:10:00,41.4,25.6,29.82,NW,304,5.0,11.0,53,0.00,,,0.00,0,WeatherCatV1.24B11,2014-01-18 12:10:00,
2014-01-18 06:11:00,41.4,25.6,29.83,WNW,302,3.0,10.0,53,0.00,,,0.00,0,WeatherCatV1.24B11,2014-01-18 12:11:00,
2014-01-18 06:13:00,41.2,25.8,29.83,WNW,296,9.0,13.0,54,0.00,,,0.00,0,WeatherCatV1.24B11,2014-01-18 12:13:00,
2014-01-18 06:14:00,41.1,25.7,29.82,WNW,299,8.0,17.0,54,0.00,,,0.00,0,WeatherCatV1.24B11,2014-01-18 12:14:00,
2014-01-18 06:15:00,41.1,25.7,29.82,WNW,298,5.0,17.0,54,0.00,,,0.00,0,WeatherCatV1.24B11,2014-01-18 12:15:00,
2014-01-18 06:16:00,41.1,25.7,29.82,WNW,295,10.0,10.0,54,0.00,,,0.00,0,WeatherCatV1.24B11,2014-01-18 12:16:00,
2014-01-18 06:18:00,40.9,25.5,29.82,WNW,298,7.0,14.0,54,0.00,,,0.00,0,WeatherCatV1.24B11,2014-01-18 12:18:00,
2014-01-18 06:19:00,40.9,25.5,29.82,WNW,300,4.0,14.0,54,0.00,,,0.00,0,WeatherCatV1.24B11,2014-01-18 12:19:00,
2014-01-18 06:20:00,40.7,25.4,29.82,WNW,287,3.0,11.0,54,0.00,,,0.00,0,WeatherCatV1.24B11,2014-01-18 12:20:00,
2014-01-18 06:21:00,40.7,25.4,29.82,WNW,301,6.0,11.0,54,0.00,,,0.00,0,WeatherCatV1.24B11,2014-01-18 12:21:00,
2014-01-18 06:23:00,40.5,25.6,29.82,WNW,295,4.0,8.0,55,0.00,,,0.00,0,WeatherCatV1.24B11,2014-01-18 12:23:00,
2014-01-18 06:24:00,40.5,25.6,29.82,WNW,295,5.0,8.0,55,0.00,,,0.00,0,WeatherCatV1.24B11,2014-01-18 12:24:00,
2014-01-18 06:26:00,40.4,25.5,29.82,WNW,291,5.0,9.0,55,0.00,,,0.00,0,WeatherCatV1.24B11,2014-01-18 12:26:00,
2014-01-18 06:27:00,40.3,25.4,29.82,WNW,296,5.0,8.0,55,0.00,,,0.00,0,WeatherCatV1.24B11,2014-01-18 12:27:00,
2014-01-18 06:28:00,40.3,25.4,29.82,WNW,292,5.0,10.0,55,0.00,,,0.00,0,WeatherCatV1.24B11,2014-01-18 12:28:00,
2014-01-18 06:29:00,40.2,25.3,29.82,WNW,296,6.0,10.0,55,0.00,,,0.00,0,WeatherCatV1.24B11,2014-01-18 12:29:00,
2014-01-18 06:31:00,40.2,25.3,29.82,WNW,294,5.0,10.0,55,0.00,,,0.00,0,WeatherCatV1.24B11,2014-01-18 12:31:00,
2014-01-18 06:32:00,40.2,25.3,29.82,WNW,295,6.0,9.0,55,0.00,,,0.00,0,WeatherCatV1.24B11,2014-01-18 12:32:00,
2014-01-18 06:35:00,40.1,25.2,29.82,NW,311,7.0,13.0,55,0.00,,,0.00,0,WeatherCatV1.24B11,2014-01-18 12:35:00,
2014-01-18 06:36:00,40.1,25.7,29.82,West,281,13.0,13.0,56,0.00,,,0.00,0,WeatherCatV1.24B11,2014-01-18 12:36:00,
2014-01-18 06:37:00,40.1,25.7,29.81,WNW,302,11.0,13.0,56,0.00,,,0.00,0,WeatherCatV1.24B11,2014-01-18 12:37:00,
2014-01-18 06:40:00,40.1,25.7,29.81,West,275,10.0,17.0,56,0.00,,,0.00,0,WeatherCatV1.24B11,2014-01-18 12:40:00,
2014-01-18 06:41:00,40.2,25.8,29.81,WNW,299,8.0,17.0,56,0.00,,,0.00,0,WeatherCatV1.24B11,2014-01-18 12:41:00,
2014-01-18 06:42:00,40.2,25.8,29.81,WNW,295,5.0,13.0,56,0.00,,,0.00,0,WeatherCatV1.24B11,2014-01-18 12:42:00,
2014-01-18 06:45:00,40.2,25.8,29.82,NW,314,7.0,17.0,56,0.00,,,0.00,0,WeatherCatV1.24B11,2014-01-18 12:45:00,
2014-01-18 06:46:00,40.2,25.8,29.82,WNW,302,13.0,17.0,56,0.00,,,0.00,0,WeatherCatV1.24B11,2014-01-18 12:46:00,
2014-01-18 06:47:00,40.2,25.8,29.81,NW,307,5.0,17.0,56,0.00,,,0.00,0,WeatherCatV1.24B11,2014-01-18 12:47:00,
2014-01-18 06:48:00,40.2,25.8,29.82,WNW,296,9.0,13.0,56,0.00,,,0.00,0,WeatherCatV1.24B11,2014-01-18 12:48:00,
2014-01-18 06:50:00,40.1,25.7,29.82,WNW,298,13.0,13.0,56,0.00,,,0.00,0,WeatherCatV1.24B11,2014-01-18 12:50:00,
2014-01-18 06:51:00,40.1,25.7,29.82,WNW,296,13.0,14.0,56,0.00,,,0.00,0,WeatherCatV1.24B11,2014-01-18 12:51:00,
2014-01-18 06:52:00,40.1,25.7,29.82,WNW,288,8.0,14.0,56,0.00,,,0.00,0,WeatherCatV1.24B11,2014-01-18 12:52:00,
2014-01-18 06:53:00,40.1,25.7,29.82,NW,310,9.0,18.0,56,0.00,,,0.00,0,WeatherCatV1.24B11,2014-01-18 12:53:00,
2014-01-18 06:55:00,40.2,25.8,29.81,WSW,243,12.0,16.0,56,0.00,,,0.00,0,WeatherCatV1.24B11,2014-01-18 12:55:00,
2014-01-18 06:57:00,40.2,25.8,29.81,NNW,340,7.0,12.0,56,0.00,,,0.00,0,WeatherCatV1.24B11,2014-01-18 12:57:00,
2014-01-18 06:58:00,40.2,25.8,29.82,WNW,296,6.0,16.0,56,0.00,,,0.00,0,WeatherCatV1.24B11,2014-01-18 12:58:00,
2014-01-18 07:01:00,40.3,25.9,29.82,NW,306,4.0,10.0,56,0.00,,,0.00,0,WeatherCatV1.24B11,2014-01-18 13:01:00,
2014-01-18 07:02:00,40.2,26.2,29.82,NW,308,5.0,14.0,57,0.00,,,0.00,0,WeatherCatV1.24B11,2014-01-18 13:02:00,
2014-01-18 07:03:00,40.2,26.2,29.82,NW,307,8.0,12.0,57,0.00,,,0.00,0,WeatherCatV1.24B11,2014-01-18 13:03:00,
2014-01-18 07:04:00,40.2,26.2,29.82,WNW,302,5.0,12.0,57,0.00,,,0.00,0,WeatherCatV1.24B11,2014-01-18 13:04:00,
2014-01-18 07:06:00,40.2,26.2,29.82,NW,316,14.0,19.0,57,0.00,,,0.00,0,WeatherCatV1.24B11,2014-01-18 13:06:00,
2014-01-18 07:07:00,40.3,26.3,29.82,NW,304,11.0,15.0,57,0.00,,,0.00,0,WeatherCatV1.24B11,2014-01-18 13:07:00,
2014-01-18 07:08:00,40.3,26.3,29.82,WNW,287,9.0,15.0,57,0.00,,,0.00,0,WeatherCatV1.24B11,2014-01-18 13:08:00,
2014-01-18 07:09:00,40.4,26.4,29.82,WNW,298,11.0,19.0,57,0.00,,,0.00,0,WeatherCatV1.24B11,2014-01-18 13:09:00,
2014-01-18 07:11:00,40.5,26.5,29.83,NW,304,9.0,13.0,57,0.00,,,0.00,0,WeatherCatV1.24B11,2014-01-18 13:11:00,
2014-01-18 07:12:00,40.5,26.5,29.83,NW,311,15.0,15.0,57,0.00,,,0.00,0,WeatherCatV1.24B11,2014-01-18 13:12:00,
2014-01-18 07:13:00,40.5,26.5,29.82,NW,312,15.0,20.0,57,0.00,,,0.00,0,WeatherCatV1.24B11,2014-01-18 13:13:00,
2014-01-18 07:14:00,40.5,26.5,29.83,West,279,15.0,20.0,57,0.00,,,0.00,0,WeatherCatV1.24B11,2014-01-18 13:14:00,
2014-01-18 07:16:00,40.7,26.7,29.82,WNW,284,15.0,15.0,57,0.00,,,0.00,0,WeatherCatV1.24B11,2014-01-18 13:16:00,
2014-01-18 07:17:00,40.7,26.7,29.82,West,279,21.0,21.0,57,0.00,,,0.00,0,WeatherCatV1.24B11,2014-01-18 13:17:00,
2014-01-18 07:19:00,40.7,26.7,29.82,WNW,300,10.0,21.0,57,0.00,,,0.00,0,WeatherCatV1.24B11,2014-01-18 13:19:00,
2014-01-18 07:21:00,40.8,26.8,29.82,WNW,287,9.0,17.0,57,0.00,,,0.00,0,WeatherCatV1.24B11,2014-01-18 13:21:00,
2014-01-18 07:22:00,40.7,26.7,29.82,WNW,298,13.0,20.0,57,0.00,,,0.00,0,WeatherCatV1.24B11,2014-01-18 13:22:00,
2014-01-18 07:23:00,40.7,26.7,29.82,NNW,333,14.0,20.0,57,0.00,,,0.00,0,WeatherCatV1.24B11,2014-01-18 13:23:00,
2014-01-18 07:24:00,40.8,26.8,29.82,WNW,300,6.0,20.0,57,0.00,,,0.00,0,WeatherCatV1.24B11,2014-01-18 13:24:00,
2014-01-18 07:25:00,40.8,26.8,29.83,WNW,296,8.0,16.0,57,0.00,,,0.00,0,WeatherCatV1.24B11,2014-01-18 13:25:00,
2014-01-18 07:27:00,40.6,26.6,29.82,NW,312,12.0,16.0,57,0.00,,,0.00,0,WeatherCatV1.24B11,2014-01-18 13:27:00,
2014-01-18 07:29:00,40.5,26.5,29.83,WNW,291,15.0,16.0,57,0.00,,,0.00,0,WeatherCatV1.24B11,2014-01-18 13:29:00,
2014-01-18 07:30:00,40.5,26.9,29.82,NW,318,17.0,17.0,58,0.00,,,0.00,0,WeatherCatV1.24B11,2014-01-18 13:30:00,
2014-01-18 07:32:00,40.6,27.0,29.83,NW,304,11.0,21.0,58,0.00,,,0.00,0,WeatherCatV1.24B11,2014-01-18 13:32:00,
2014-01-18 07:34:00,40.7,27.1,29.83,NW,304,9.0,18.0,58,0.00,,,0.00,0,WeatherCatV1.24B11,2014-01-18 13:34:00,
2014-01-18 07:35:00,40.8,27.2,29.83,NNW,327,11.0,22.0,58,0.00,,,0.00,0,WeatherCatV1.24B11,2014-01-18 13:35:00,
2014-01-18 07:37:00,40.8,27.2,29.82,WNW,292,6.0,21.0,58,0.00,,,0.00,0,WeatherCatV1.24B11,2014-01-18 13:37:00,
2014-01-18 07:38:00,40.9,27.3,29.82,WNW,294,6.0,21.0,58,0.00,,,0.00,0,WeatherCatV1.24B11,2014-01-18 13:38:00,
2014-01-18 07:39:00,40.9,26.9,29.82,NW,310,11.0,15.0,57,0.00,,,0.00,0,WeatherCatV1.24B11,2014-01-18 13:39:00,
2014-01-18 07:40:00,40.8,26.8,29.82,WNW,303,11.0,17.0,57,0.00,,,0.00,0,WeatherCatV1.24B11,2014-01-18 13:40:00,
2014-01-18 07:42:00,40.9,26.9,29.82,WNW,291,8.0,13.0,57,0.00,,,0.00,0,WeatherCatV1.24B11,2014-01-18 13:42:00,
2014-01-18 07:43:00,40.9,26.9,29.82,WNW,301,11.0,13.0,57,0.00,,,0.00,0,WeatherCatV1.24B11,2014-01-18 13:43:00,
2014-01-18 07:44:00,40.8,26.8,29.83,WNW,294,11.0,15.0,57,0.00,,,0.00,0,WeatherCatV1.24B11,2014-01-18 13:44:00,
2014-01-18 07:45:00,40.8,26.8,29.83,WNW,290,5.0,15.0,57,0.00,,,0.00,0,WeatherCatV1.24B11,2014-01-18 13:45:00,
2014-01-18 07:46:00,40.7,27.1,29.82,NW,307,11.0,15.0,58,0.00,,,0.00,0,WeatherCatV1.24B11,2014-01-18 13:46:00,
2014-01-18 07:48:00,40.7,27.1,29.83,WNW,286,16.0,22.0,58,0.00,,,0.00,0,WeatherCatV1.24B11,2014-01-18 13:48:00,
2014-01-18 07:49:00,40.7,27.1,29.83,NW,311,21.0,21.0,58,0.00,,,0.00,0,WeatherCatV1.24B11,2014-01-18 13:49:00,
2014-01-18 07:50:00,40.8,27.2,29.83,NW,313,11.0,21.0,58,0.00,,,0.00,0,WeatherCatV1.24B11,2014-01-18 13:50:00,
2014-01-18 07:51:00,40.8,27.2,29.83,NW,314,10.0,21.0,58,0.00,,,0.00,0,WeatherCatV1.24B11,2014-01-18 13:51:00,
2014-01-18 07:53:00,40.8,27.2,29.83,WNW,300,4.0,26.0,58,0.00,,,0.00,0,WeatherCatV1.24B11,2014-01-18 13:53:00,
2014-01-18 07:54:00,40.8,27.2,29.83,NNW,344,15.0,26.0,58,0.00,,,0.00,0,WeatherCatV1.24B11,2014-01-18 13:54:00,
2014-01-18 07:55:00,40.9,27.3,29.83,WNW,298,9.0,20.0,58,0.00,,,0.00,5,WeatherCatV1.24B11,2014-01-18 13:55:00,
2014-01-18 07:57:00,40.9,27.3,29.83,NW,309,9.0,20.0,58,0.00,,,0.00,5,WeatherCatV1.24B11,2014-01-18 13:57:00,
2014-01-18 07:58:00,40.8,27.2,29.83,NW,304,5.0,12.0,58,0.00,,,0.00,5,WeatherCatV1.24B11,2014-01-18 13:58:00,
2014-01-18 07:59:00,40.9,27.3,29.83,NW,315,4.0,12.0,58,0.00,,,0.00,5,WeatherCatV1.24B11,2014-01-18 13:59:00,
2014-01-18 08:00:00,40.8,27.2,29.83,North,0,7.0,12.0,58,0.00,,,0.00,5,WeatherCatV1.24B11,2014-01-18 14:00:00,
2014-01-18 08:01:00,40.8,27.2,29.83,West,281,11.0,14.0,58,0.00,,,0.00,5,WeatherCatV1.24B11,2014-01-18 14:01:00,
2014-01-18 08:02:00,40.8,27.2,29.83,NW,304,12.0,17.0,58,0.00,,,0.00,7,WeatherCatV1.24B11,2014-01-18 14:02:00,
2014-01-18 08:03:00,40.9,27.3,29.83,NW,323,12.0,17.0,58,0.00,,,0.00,9,WeatherCatV1.24B11,2014-01-18 14:03:00,
2014-01-18 08:04:00,40.8,27.2,29.83,NW,310,6.0,16.0,58,0.00,,,0.00,9,WeatherCatV1.24B11,2014-01-18 14:04:00,
2014-01-18 08:05:00,40.8,27.2,29.83,NW,311,13.0,21.0,58,0.00,,,0.00,11,WeatherCatV1.24B11,2014-01-18 14:05:00,
2014-01-18 08:06:00,40.8,27.2,29.83,NW,315,7.0,21.0,58,0.00,,,0.00,11,WeatherCatV1.24B11,2014-01-18 14:06:00,
2014-01-18 08:07:00,40.8,27.2,29.83,NW,312,10.0,21.0,58,0.00,,,0.00,12,WeatherCatV1.24B11,2014-01-18 14:07:00,
2014-01-18 08:09:00,40.9,27.3,29.83,NW,317,15.0,19.0,58,0.00,,,0.00,14,WeatherCatV1.24B11,2014-01-18 14:09:00,
2014-01-18 08:10:00,40.9,26.9,29.83,WNW,296,12.0,20.0,57,0.00,,,0.00,14,WeatherCatV1.24B11,2014-01-18 14:10:00,
2014-01-18 08:11:00,41.0,27.0,29.83,West,275,14.0,18.0,57,0.00,,,0.00,14,WeatherCatV1.24B11,2014-01-18 14:11:00,
2014-01-18 08:12:00,41.0,27.0,29.83,NW,309,13.0,21.0,57,0.00,,,0.00,14,WeatherCatV1.24B11,2014-01-18 14:12:00,
2014-01-18 08:14:00,41.1,27.0,29.83,WNW,289,8.0,21.0,57,0.00,,,0.00,16,WeatherCatV1.24B11,2014-01-18 14:14:00,
2014-01-18 08:15:00,41.1,27.0,29.83,NW,312,17.0,17.0,57,0.00,,,0.00,18,WeatherCatV1.24B11,2014-01-18 14:15:00,
2014-01-18 08:16:00,41.1,27.0,29.84,NW,318,11.0,25.0,57,0.00,,,0.00,19,WeatherCatV1.24B11,2014-01-18 14:16:00,
2014-01-18 08:17:00,41.1,27.0,29.84,WNW,296,12.0,25.0,57,0.00,,,0.00,23,WeatherCatV1.24B11,2014-01-18 14:17:00,
2014-01-18 08:19:00,41.1,27.0,29.84,North,0,18.0,18.0,57,0.00,,,0.00,32,WeatherCatV1.24B11,2014-01-18 14:19:00,
2014-01-18 08:20:00,41.1,27.0,29.84,North,349,12.0,19.0,57,0.00,,,0.00,42,WeatherCatV1.24B11,2014-01-18 14:20:00,
2014-01-18 08:21:00,41.1,27.0,29.84,NW,314,14.0,19.0,57,0.00,,,0.00,33,WeatherCatV1.24B11,2014-01-18 14:21:00,
2014-01-18 08:22:00,41.1,27.0,29.84,WSW,240,14.0,21.0,57,0.00,,,0.00,33,WeatherCatV1.24B11,2014-01-18 14:22:00,
2014-01-18 08:24:00,41.1,27.0,29.84,WNW,292,10.0,15.0,57,0.00,,,0.00,25,WeatherCatV1.24B11,2014-01-18 14:24:00,
2014-01-18 08:25:00,41.1,27.0,29.84,WNW,300,9.0,15.0,57,0.00,,,0.00,37,WeatherCatV1.24B11,2014-01-18 14:25:00,
2014-01-18 08:26:00,41.0,27.0,29.84,NNE,15,7.0,12.0,57,0.00,,,0.00,26,WeatherCatV1.24B11,2014-01-18 14:26:00,
2014-01-18 08:27:00,41.0,27.0,29.84,NW,308,16.0,17.0,57,0.00,,,0.00,26,WeatherCatV1.24B11,2014-01-18 14:27:00,
2014-01-18 08:28:00,41.0,27.0,29.84,WNW,301,13.0,17.0,57,0.00,,,0.00,37,WeatherCatV1.24B11,2014-01-18 14:28:00,
2014-01-18 08:29:00,40.9,26.9,29.85,NW,313,6.0,19.0,57,0.00,,,0.00,33,WeatherCatV1.24B11,2014-01-18 14:29:00,
2014-01-18 08:30:00,40.9,26.9,29.84,WNW,286,14.0,15.0,57,0.00,,,0.00,47,WeatherCatV1.24B11,2014-01-18 14:30:00,
2014-01-18 08:31:00,40.9,26.9,29.84,NNW,328,20.0,20.0,57,0.00,,,0.00,54,WeatherCatV1.24B11,2014-01-18 14:31:00,
2014-01-18 08:32:00,40.9,26.4,29.84,West,279,9.0,20.0,56,0.00,,,0.00,54,WeatherCatV1.24B11,2014-01-18 14:32:00,
2014-01-18 08:33:00,41.0,26.5,29.85,WNW,302,11.0,25.0,56,0.00,,,0.00,67,WeatherCatV1.24B11,2014-01-18 14:33:00,
2014-01-18 08:34:00,41.0,26.5,29.85,North,355,15.0,20.0,56,0.00,,,0.00,70,WeatherCatV1.24B11,2014-01-18 14:34:00,
2014-01-18 08:36:00,41.0,26.5,29.85,WNW,298,17.0,29.0,56,0.00,,,0.00,63,WeatherCatV1.24B11,2014-01-18 14:36:00,
2014-01-18 08:37:00,41.1,26.2,29.84,NW,305,19.0,21.0,55,0.00,,,0.00,69,WeatherCatV1.24B11,2014-01-18 14:37:00,
2014-01-18 08:38:00,41.1,26.2,29.84,NW,313,17.0,23.0,55,0.00,,,0.00,30,WeatherCatV1.24B11,2014-01-18 14:38:00,
2014-01-18 08:40:00,41.1,26.2,29.85,NNW,340,11.0,16.0,55,0.00,,,0.00,33,WeatherCatV1.24B11,2014-01-18 14:40:00,
2014-01-18 08:41:00,41.1,26.2,29.86,NW,318,26.0,26.0,55,0.00,,,0.00,33,WeatherCatV1.24B11,2014-01-18 14:41:00,
2014-01-18 08:42:00,41.0,26.1,29.85,WNW,290,9.0,26.0,55,0.00,,,0.00,33,WeatherCatV1.24B11,2014-01-18 14:42:00,
2014-01-18 08:43:00,41.0,26.1,29.85,WNW,294,14.0,26.0,55,0.00,,,0.00,39,WeatherCatV1.24B11,2014-01-18 14:43:00,
2014-01-18 08:45:00,40.9,26.0,29.85,WNW,296,10.0,20.0,55,0.00,,,0.00,86,WeatherCatV1.24B11,2014-01-18 14:45:00,
2014-01-18 08:46:00,40.9,26.0,29.85,NW,307,10.0,27.0,55,0.00,,,0.00,107,WeatherCatV1.24B11,2014-01-18 14:46:00,
2014-01-18 08:47:00,40.9,26.0,29.85,NW,324,13.0,27.0,55,0.00,,,0.00,54,WeatherCatV1.24B11,2014-01-18 14:47:00,
2014-01-18 08:48:00,40.9,26.0,29.85,NW,310,19.0,27.0,55,0.00,,,0.00,54,WeatherCatV1.24B11,2014-01-18 14:48:00,
2014-01-18 08:49:00,40.9,26.0,29.85,NW,314,12.0,26.0,55,0.00,,,0.00,69,WeatherCatV1.24B11,2014-01-18 14:49:00,
2014-01-18 08:50:00,40.9,26.0,29.85,WNW,295,24.0,24.0,55,0.00,,,0.00,98,WeatherCatV1.24B11,2014-01-18 14:50:00,
2014-01-18 08:52:00,40.9,26.0,29.84,NW,305,21.0,32.0,55,0.00,,,0.00,141,WeatherCatV1.24B11,2014-01-18 14:52:00,
2014-01-18 08:53:00,41.0,26.1,29.85,NW,304,14.0,32.0,55,0.00,,,0.00,163,WeatherCatV1.24B11,2014-01-18 14:53:00,
2014-01-18 08:54:00,41.0,26.1,29.85,WNW,297,20.0,32.0,55,0.00,,,0.00,165,WeatherCatV1.24B11,2014-01-18 14:54:00,
2014-01-18 08:56:00,41.1,26.2,29.85,NW,320,28.0,28.0,55,0.00,,,0.00,169,WeatherCatV1.24B11,2014-01-18 14:56:00,
2014-01-18 08:57:00,41.2,26.3,29.85,NW,325,17.0,28.0,55,0.00,,,0.00,128,WeatherCatV1.24B11,2014-01-18 14:57:00,
2014-01-18 08:58:00,41.2,26.3,29.86,WNW,298,11.0,19.0,55,0.00,,,0.00,111,WeatherCatV1.24B11,2014-01-18 14:58:00,
2014-01-18 08:59:00,41.3,26.4,29.85,WNW,303,12.0,16.0,55,0.00,,,0.00,148,WeatherCatV1.24B11,2014-01-18 14:59:00,
2014-01-18 09:01:00,41.2,26.3,29.85,NNW,337,29.0,29.0,55,0.00,,,0.00,169,WeatherCatV1.24B11,2014-01-18 15:01:00,
2014-01-18 09:02:00,41.2,26.3,29.85,NW,309,10.0,29.0,55,0.00,,,0.00,72,WeatherCatV1.24B11,2014-01-18 15:02:00,
2014-01-18 09:03:00,41.1,26.2,29.85,NW,309,23.0,26.0,55,0.00,,,0.00,69,WeatherCatV1.24B11,2014-01-18 15:03:00,
2014-01-18 09:04:00,41.1,26.2,29.85,NW,324,25.0,26.0,55,0.00,,,0.00,69,WeatherCatV1.24B11,2014-01-18 15:04:00,
2014-01-18 09:06:00,41.1,26.2,29.85,WNW,302,15.0,19.0,55,0.00,,,0.00,58,WeatherCatV1.24B11,2014-01-18 15:06:00,
2014-01-18 09:07:00,41.0,26.1,29.85,NW,309,10.0,28.0,55,0.00,,,0.00,62,WeatherCatV1.24B11,2014-01-18 15:07:00,
2014-01-18 09:08:00,41.0,26.1,29.85,NW,307,14.0,28.0,55,0.00,,,0.00,63,WeatherCatV1.24B11,2014-01-18 15:08:00,
2014-01-18 09:09:00,41.0,26.1,29.86,NW,315,12.0,26.0,55,0.00,,,0.00,58,WeatherCatV1.24B11,2014-01-18 15:09:00,
2014-01-18 09:11:00,40.9,26.0,29.85,NW,311,21.0,22.0,55,0.00,,,0.00,58,WeatherCatV1.24B11,2014-01-18 15:11:00,
2014-01-18 09:12:00,40.9,26.0,29.85,NW,311,12.0,24.0,55,0.00,,,0.00,67,WeatherCatV1.24B11,2014-01-18 15:12:00,
2014-01-18 09:13:00,40.9,26.0,29.85,NW,319,21.0,24.0,55,0.00,,,0.00,79,WeatherCatV1.24B11,2014-01-18 15:13:00,
2014-01-18 09:14:00,40.9,26.0,29.86,NNW,327,26.0,33.0,55,0.00,,,0.00,84,WeatherCatV1.24B11,2014-01-18 15:14:00,
2014-01-18 09:15:00,41.0,26.1,29.86,NNW,329,13.0,33.0,55,0.00,,,0.00,76,WeatherCatV1.24B11,2014-01-18 15:15:00,
2014-01-18 09:16:00,41.0,26.1,29.85,WNW,295,19.0,35.0,55,0.00,,,0.00,171,WeatherCatV1.24B11,2014-01-18 15:16:00,
2014-01-18 09:18:00,41.0,26.1,29.86,West,277,19.0,35.0,55,0.00,,,0.00,151,WeatherCatV1.24B11,2014-01-18 15:18:00,
2014-01-18 09:19:00,41.1,26.2,29.86,NW,311,16.0,29.0,55,0.00,,,0.00,199,WeatherCatV1.24B11,2014-01-18 15:19:00,
2014-01-18 09:21:00,41.2,26.3,29.86,NW,308,13.0,33.0,55,0.00,,,0.00,111,WeatherCatV1.24B11,2014-01-18 15:21:00,
2014-01-18 09:23:00,41.2,26.3,29.87,WNW,302,16.0,25.0,55,0.00,,,0.00,62,WeatherCatV1.24B11,2014-01-18 15:23:00,
2014-01-18 09:24:00,41.2,26.3,29.87,NW,312,5.0,25.0,55,0.00,,,0.00,91,WeatherCatV1.24B11,2014-01-18 15:24:00,
2014-01-18 09:25:00,41.2,26.3,29.87,NW,324,11.0,15.0,55,0.00,,,0.00,74,WeatherCatV1.24B11,2014-01-18 15:25:00,
2014-01-18 09:26:00,41.2,26.3,29.86,NW,307,20.0,28.0,55,0.00,,,0.00,69,WeatherCatV1.24B11,2014-01-18 15:26:00,
2014-01-18 09:27:00,41.1,26.2,29.87,WNW,302,25.0,28.0,55,0.00,,,0.00,58,WeatherCatV1.24B11,2014-01-18 15:27:00,
2014-01-18 09:28:00,41.1,25.7,29.86,NNW,336,16.0,25.0,54,0.00,,,0.00,46,WeatherCatV1.24B11,2014-01-18 15:28:00,
2014-01-18 09:29:00,41.1,25.7,29.87,WNW,297,11.0,19.0,54,0.00,,,0.00,40,WeatherCatV1.24B11,2014-01-18 15:29:00,
2014-01-18 09:30:00,41.1,25.7,29.87,NW,318,14.0,19.0,54,0.00,,,0.00,40,WeatherCatV1.24B11,2014-01-18 15:30:00,
2014-01-18 09:31:00,41.1,25.7,29.87,NW,321,12.0,23.0,54,0.00,,,0.00,39,WeatherCatV1.24B11,2014-01-18 15:31:00,
2014-01-18 09:32:00,41.1,25.7,29.87,North,355,13.0,32.0,54,0.00,,,0.00,40,WeatherCatV1.24B11,2014-01-18 15:32:00,
2014-01-18 09:33:00,41.1,25.7,29.87,NW,319,19.0,32.0,54,0.00,,,0.00,40,WeatherCatV1.24B11,2014-01-18 15:33:00,
2014-01-18 09:34:00,41.1,25.7,29.88,North,5,10.0,21.0,54,0.00,,,0.00,35,WeatherCatV1.24B11,2014-01-18 15:34:00,
2014-01-18 09:35:00,41.1,25.7,29.87,NW,315,11.0,21.0,54,0.00,,,0.00,30,WeatherCatV1.24B11,2014-01-18 15:35:00,
2014-01-18 09:36:00,41.1,25.7,29.88,WNW,303,19.0,33.0,54,0.00,,,0.00,33,WeatherCatV1.24B11,2014-01-18 15:36:00,
2014-01-18 09:37:00,41.0,25.6,29.87,NW,306,20.0,33.0,54,0.00,,,0.00,35,WeatherCatV1.24B11,2014-01-18 15:37:00,
2014-01-18 09:39:00,41.0,25.6,29.88,WNW,299,12.0,29.0,54,0.00,,,0.00,46,WeatherCatV1.24B11,2014-01-18 15:39:00,
2014-01-18 09:40:00,41.0,26.1,29.87,WNW,303,25.0,29.0,55,0.00,,,0.00,42,WeatherCatV1.24B11,2014-01-18 15:40:00,
2014-01-18 09:41:00,40.9,25.5,29.88,WNW,297,26.0,36.0,54,0.00,,,0.00,40,WeatherCatV1.24B11,2014-01-18 15:41:00,
2014-01-18 09:42:00,41.0,26.1,29.88,WNW,296,13.0,36.0,55,0.00,,,0.00,40,WeatherCatV1.24B11,2014-01-18 15:42:00,
2014-01-18 09:44:00,40.9,25.5,29.88,NW,322,13.0,26.0,54,0.00,,,0.00,46,WeatherCatV1.24B11,2014-01-18 15:44:00,
2014-01-18 09:45:00,40.9,26.0,29.88,WNW,298,15.0,26.0,55,0.00,,,0.00,44,WeatherCatV1.24B11,2014-01-18 15:45:00,
2014-01-18 09:46:00,40.8,25.9,29.88,NW,311,26.0,26.0,55,0.00,,,0.00,42,WeatherCatV1.24B11,2014-01-18 15:46:00,
2014-01-18 09:47:00,40.8,25.5,29.88,NW,324,16.0,26.0,54,0.00,,,0.00,39,WeatherCatV1.24B11,2014-01-18 15:47:00,
2014-01-18 09:48:00,40.8,25.5,29.88,NNW,342,24.0,26.0,54,0.00,,,0.00,39,WeatherCatV1.24B11,2014-01-18 15:48:00,
2014-01-18 09:50:00,40.8,25.9,29.88,NNW,334,7.0,27.0,55,0.00,,,0.00,44,WeatherCatV1.24B11,2014-01-18 15:50:00,
2014-01-18 09:51:00,40.7,25.8,29.89,NNW,331,12.0,33.0,55,0.00,,,0.00,60,WeatherCatV1.24B11,2014-01-18 15:51:00,
2014-01-18 09:52:00,40.7,25.8,29.89,NW,306,10.0,33.0,55,0.00,,,0.00,65,WeatherCatV1.24B11,2014-01-18 15:52:00,
2014-01-18 09:53:00,40.7,25.8,29.89,NW,307,11.0,17.0,55,0.00,,,0.00,56,WeatherCatV1.24B11,2014-01-18 15:53:00,
2014-01-18 09:55:00,40.7,25.8,29.88,NW,306,21.0,28.0,55,0.00,,,0.00,47,WeatherCatV1.24B11,2014-01-18 15:55:00,
2014-01-18 09:56:00,40.7,25.8,29.89,NW,321,12.0,28.0,55,0.00,,,0.00,44,WeatherCatV1.24B11,2014-01-18 15:56:00,
2014-01-18 09:57:00,40.7,25.8,29.89,NW,321,21.0,27.0,55,0.00,,,0.00,42,WeatherCatV1.24B11,2014-01-18 15:57:00,
2014-01-18 09:58:00,40.6,25.7,29.89,NW,309,6.0,27.0,55,0.00,,,0.00,42,WeatherCatV1.24B11,2014-01-18 15:58:00,
2014-01-18 10:00:00,40.6,25.7,29.89,NW,309,15.0,27.0,55,0.00,,,0.00,67,WeatherCatV1.24B11,2014-01-18 16:00:00,
2014-01-18 10:01:00,40.6,25.7,29.90,WNW,297,11.0,27.0,55,0.00,,,0.00,67,WeatherCatV1.24B11,2014-01-18 16:01:00,
2014-01-18 10:02:00,40.6,25.7,29.90,NW,317,12.0,27.0,55,0.00,,,0.00,70,WeatherCatV1.24B11,2014-01-18 16:02:00,
2014-01-18 10:03:00,40.5,25.6,29.90,WNW,303,18.0,25.0,55,0.00,,,0.00,84,WeatherCatV1.24B11,2014-01-18 16:03:00,
2014-01-18 10:04:00,40.6,25.7,29.89,NW,315,25.0,25.0,55,0.00,,,0.00,84,WeatherCatV1.24B11,2014-01-18 16:04:00,
2014-01-18 10:06:00,40.6,25.7,29.89,NW,321,11.0,30.0,55,0.00,,,0.00,93,WeatherCatV1.24B11,2014-01-18 16:06:00,
2014-01-18 10:07:00,40.6,25.7,29.90,NW,313,12.0,39.0,55,0.00,,,0.00,91,WeatherCatV1.24B11,2014-01-18 16:07:00,
2014-01-18 10:09:00,40.6,25.7,29.90,NNW,334,10.0,21.0,55,0.00,,,0.00,93,WeatherCatV1.24B11,2014-01-18 16:09:00,
2014-01-18 10:11:00,40.6,25.3,29.90,NW,314,12.0,22.0,54,0.00,,,0.00,88,WeatherCatV1.24B11,2014-01-18 16:11:00,
2014-01-18 10:12:00,40.6,25.3,29.90,NW,305,11.0,19.0,54,0.00,,,0.00,95,WeatherCatV1.24B11,2014-01-18 16:12:00,
2014-01-18 10:14:00,40.6,25.3,29.91,WNW,302,18.0,28.0,54,0.00,,,0.00,65,WeatherCatV1.24B11,2014-01-18 16:14:00,
2014-01-18 10:16:00,40.5,25.2,29.91,NW,306,26.0,30.0,54,0.00,,,0.00,62,WeatherCatV1.24B11,2014-01-18 16:16:00,
2014-01-18 10:17:00,40.5,25.2,29.91,NW,321,27.0,30.0,54,0.00,,,0.00,62,WeatherCatV1.24B11,2014-01-18 16:17:00,
2014-01-18 10:19:00,40.4,25.1,29.91,WNW,302,21.0,37.0,54,0.00,,,0.00,63,WeatherCatV1.24B11,2014-01-18 16:19:00,
2014-01-18 10:20:00,40.4,25.1,29.91,NW,310,10.0,22.0,54,0.00,,,0.00,63,WeatherCatV1.24B11,2014-01-18 16:20:00,
2014-01-18 10:21:00,40.4,25.1,29.91,NNW,345,17.0,32.0,54,0.00,,,0.00,72,WeatherCatV1.24B11,2014-01-18 16:21:00,
2014-01-18 10:22:00,40.4,25.1,29.91,NW,325,11.0,32.0,54,0.00,,,0.00,77,WeatherCatV1.24B11,2014-01-18 16:22:00,
2014-01-18 10:24:00,40.4,25.1,29.92,NNW,336,14.0,22.0,54,0.00,,,0.00,81,WeatherCatV1.24B11,2014-01-18 16:24:00,
2014-01-18 10:25:00,40.4,25.1,29.92,NW,304,13.0,22.0,54,0.00,,,0.00,81,WeatherCatV1.24B11,2014-01-18 16:25:00,
2014-01-18 10:26:00,40.4,24.6,29.92,North,349,11.0,22.0,53,0.00,,,0.00,84,WeatherCatV1.24B11,2014-01-18 16:26:00,
2014-01-18 10:27:00,40.4,24.6,29.92,NNW,338,17.0,22.0,53,0.00,,,0.00,84,WeatherCatV1.24B11,2014-01-18 16:27:00,
2014-01-18 10:29:00,40.3,24.5,29.92,NW,315,15.0,33.0,53,0.00,,,0.00,77,WeatherCatV1.24B11,2014-01-18 16:29:00,
2014-01-18 10:30:00,40.3,24.5,29.92,North,350,10.0,29.0,53,0.00,,,0.00,98,WeatherCatV1.24B11,2014-01-18 16:30:00,
2014-01-18 10:31:00,40.3,24.5,29.92,NW,309,11.0,29.0,53,0.00,,,0.00,109,WeatherCatV1.24B11,2014-01-18 16:31:00,
2014-01-18 10:32:00,40.3,24.5,29.92,NW,313,12.0,24.0,53,0.00,,,0.00,109,WeatherCatV1.24B11,2014-01-18 16:32:00,
2014-01-18 10:34:00,40.3,25.0,29.92,NW,319,14.0,21.0,54,0.00,,,0.00,113,WeatherCatV1.24B11,2014-01-18 16:34:00,
2014-01-18 10:36:00,40.4,24.6,29.92,WNW,302,25.0,25.0,53,0.00,,,0.00,104,WeatherCatV1.24B11,2014-01-18 16:36:00,
2014-01-18 10:37:00,40.4,24.6,29.92,NNE,20,6.0,36.0,53,0.00,,,0.00,91,WeatherCatV1.24B11,2014-01-18 16:37:00,
2014-01-18 10:39:00,40.4,24.6,29.92,NW,322,20.0,27.0,53,0.00,,,0.00,86,WeatherCatV1.24B11,2014-01-18 16:39:00,
2014-01-18 10:41:00,40.4,24.6,29.93,NW,325,7.0,24.0,53,0.00,,,0.00,104,WeatherCatV1.24B11,2014-01-18 16:41:00,
2014-01-18 10:42:00,40.4,24.6,29.92,NW,314,9.0,24.0,53,0.00,,,0.00,107,WeatherCatV1.24B11,2014-01-18 16:42:00,
2014-01-18 10:43:00,40.4,24.6,29.92,West,272,12.0,22.0,53,0.00,,,0.00,104,WeatherCatV1.24B11,2014-01-18 16:43:00,
2014-01-18 10:45:00,40.4,24.6,29.92,North,0,13.0,20.0,53,0.00,,,0.00,98,WeatherCatV1.24B11,2014-01-18 16:45:00,
2014-01-18 10:46:00,40.4,24.6,29.93,NW,306,14.0,22.0,53,0.00,,,0.00,90,WeatherCatV1.24B11,2014-01-18 16:46:00,
2014-01-18 10:47:00,40.4,24.6,29.93,NW,323,15.0,25.0,53,0.00,,,0.00,84,WeatherCatV1.24B11,2014-01-18 16:47:00,
2014-01-18 10:48:00,40.4,24.6,29.93,NNW,347,20.0,25.0,53,0.00,,,0.00,84,WeatherCatV1.24B11,2014-01-18 16:48:00,
2014-01-18 10:50:00,40.4,24.6,29.93,NNW,327,11.0,29.0,53,0.00,,,0.00,74,WeatherCatV1.24B11,2014-01-18 16:50:00,
2014-01-18 10:51:00,40.5,24.7,29.93,NW,308,9.0,19.0,53,0.00,,,0.00,76,WeatherCatV1.24B11,2014-01-18 16:51:00,
2014-01-18 10:52:00,40.5,24.7,29.93,NW,321,9.0,19.0,53,0.00,,,0.00,76,WeatherCatV1.24B11,2014-01-18 16:52:00,
2014-01-18 10:53:00,40.5,24.7,29.93,NW,308,16.0,19.0,53,0.00,,,0.00,79,WeatherCatV1.24B11,2014-01-18 16:53:00,
2014-01-18 10:55:00,40.5,24.7,29.94,NW,315,18.0,29.0,53,0.00,,,0.00,70,WeatherCatV1.24B11,2014-01-18 16:55:00,
2014-01-18 10:57:00,40.4,24.6,29.93,NW,309,8.0,29.0,53,0.00,,,0.00,70,WeatherCatV1.24B11,2014-01-18 16:57:00,
2014-01-18 10:58:00,40.4,24.6,29.93,North,5,13.0,17.0,53,0.00,,,0.00,76,WeatherCatV1.24B11,2014-01-18 16:58:00,
2014-01-18 11:00:00,40.4,25.1,29.94,NW,313,18.0,22.0,54,0.00,,,0.00,77,WeatherCatV1.24B11,2014-01-18 17:00:00,
2014-01-18 11:02:00,40.4,25.1,29.93,NNW,344,24.0,24.0,54,0.00,,,0.00,72,WeatherCatV1.24B11,2014-01-18 17:02:00,
2014-01-18 11:03:00,40.4,25.1,29.93,NW,326,20.0,30.0,54,0.00,,,0.00,72,WeatherCatV1.24B11,2014-01-18 17:03:00,
2014-01-18 11:06:00,40.4,25.1,29.94,WNW,299,11.0,20.0,54,0.00,,,0.00,67,WeatherCatV1.24B11,2014-01-18 17:06:00,
2014-01-18 11:07:00,40.4,25.1,29.94,NNW,337,16.0,20.0,54,0.00,,,0.00,74,WeatherCatV1.24B11,2014-01-18 17:07:00,
2014-01-18 11:08:00,40.4,25.1,29.94,NW,316,23.0,29.0,54,0.00,,,0.00,83,WeatherCatV1.24B11,2014-01-18 17:08:00,
2014-01-18 11:09:00,40.4,25.1,29.94,NNE,17,11.0,29.0,54,0.00,,,0.00,105,WeatherCatV1.24B11,2014-01-18 17:09:00,
2014-01-18 11:11:00,40.3,25.0,29.94,NW,306,11.0,23.0,54,0.00,,,0.00,88,WeatherCatV1.24B11,2014-01-18 17:11:00,
2014-01-18 11:12:00,40.3,25.0,29.94,NW,313,16.0,31.0,54,0.00,,,0.00,88,WeatherCatV1.24B11,2014-01-18 17:12:00,
2014-01-18 11:13:00,40.3,25.0,29.94,North,349,19.0,31.0,54,0.00,,,0.00,76,WeatherCatV1.24B11,2014-01-18 17:13:00,
2014-01-18 11:14:00,40.3,25.0,29.94,NW,310,19.0,31.0,54,0.00,,,0.00,76,WeatherCatV1.24B11,2014-01-18 17:14:00,
2014-01-18 11:15:00,40.3,25.0,29.94,WNW,296,16.0,27.0,54,0.00,,,0.00,74,WeatherCatV1.24B11,2014-01-18 17:15:00,
2014-01-18 11:16:00,40.3,25.0,29.95,NNW,337,6.0,25.0,54,0.00,,,0.00,86,WeatherCatV1.24B11,2014-01-18 17:16:00,
2014-01-18 11:18:00,40.2,25.3,29.94,North,5,8.0,31.0,55,0.00,,,0.00,86,WeatherCatV1.24B11,2014-01-18 17:18:00,
2014-01-18 11:19:00,40.2,25.3,29.94,NW,306,11.0,16.0,55,0.00,,,0.00,76,WeatherCatV1.24B11,2014-01-18 17:19:00,
2014-01-18 11:20:00,40.2,25.3,29.95,North,355,15.0,19.0,55,0.00,,,0.00,76,WeatherCatV1.24B11,2014-01-18 17:20:00,
2014-01-18 11:21:00,40.2,25.3,29.95,NW,317,11.0,19.0,55,0.00,,,0.00,77,WeatherCatV1.24B11,2014-01-18 17:21:00,
2014-01-18 11:23:00,40.2,25.3,29.94,NNE,12,20.0,25.0,55,0.00,,,0.00,79,WeatherCatV1.24B11,2014-01-18 17:23:00,
2014-01-18 11:24:00,40.1,25.2,29.95,NW,317,10.0,36.0,55,0.00,,,0.00,81,WeatherCatV1.24B11,2014-01-18 17:24:00,
2014-01-18 11:25:00,40.1,25.2,29.95,NNW,338,23.0,36.0,55,0.00,,,0.00,84,WeatherCatV1.24B11,2014-01-18 17:25:00,
2014-01-18 11:26:00,40.0,25.1,29.95,NNW,336,16.0,33.0,55,0.00,,,0.00,83,WeatherCatV1.24B11,2014-01-18 17:26:00,
2014-01-18 11:28:00,39.9,25.5,29.95,WNW,302,22.0,35.0,56,0.00,,,0.00,69,WeatherCatV1.24B11,2014-01-18 17:28:00,
2014-01-18 11:29:00,39.8,25.4,29.95,NW,324,18.0,33.0,56,0.00,,,0.00,70,WeatherCatV1.24B11,2014-01-18 17:29:00,
2014-01-18 11:30:00,39.8,25.4,29.95,NW,317,12.0,33.0,56,0.00,,,0.00,76,WeatherCatV1.24B11,2014-01-18 17:30:00,
2014-01-18 11:32:00,39.8,25.4,29.95,NNW,340,22.0,40.0,56,0.00,,,0.00,84,WeatherCatV1.24B11,2014-01-18 17:32:00,
2014-01-18 11:33:00,39.7,25.3,29.95,WNW,299,15.0,26.0,56,0.00,,,0.00,79,WeatherCatV1.24B11,2014-01-18 17:33:00,
2014-01-18 11:34:00,39.7,25.3,29.95,NW,313,14.0,34.0,56,0.00,,,0.00,81,WeatherCatV1.24B11,2014-01-18 17:34:00,
2014-01-18 11:35:00,39.7,24.9,29.95,NNW,331,14.0,34.0,55,0.00,,,0.00,81,WeatherCatV1.24B11,2014-01-18 17:35:00,
2014-01-18 11:37:00,39.7,25.3,29.96,NNE,21,13.0,23.0,56,0.00,,,0.00,69,WeatherCatV1.24B11,2014-01-18 17:37:00,
2014-01-18 11:39:00,39.7,25.3,29.96,WNW,297,14.0,26.0,56,0.00,,,0.00,70,WeatherCatV1.24B11,2014-01-18 17:39:00,
2014-01-18 11:40:00,39.7,25.3,29.95,West,281,24.0,26.0,56,0.00,,,0.00,70,WeatherCatV1.24B11,2014-01-18 17:40:00,
2014-01-18 11:43:00,39.6,25.6,29.95,NW,306,10.0,27.0,57,0.00,,,0.00,63,WeatherCatV1.24B11,2014-01-18 17:43:00,
2014-01-18 11:44:00,39.6,25.6,29.96,NE,49,14.0,27.0,57,0.00,,,0.00,62,WeatherCatV1.24B11,2014-01-18 17:44:00,
2014-01-18 11:45:00,39.6,25.6,29.96,North,5,6.0,24.0,57,0.00,,,0.00,63,WeatherCatV1.24B11,2014-01-18 17:45:00,
2014-01-18 11:49:00,39.5,25.5,29.96,NW,304,13.0,24.0,57,0.00,,,0.00,63,WeatherCatV1.24B11,2014-01-18 17:49:00,
2014-01-18 11:50:00,39.6,25.6,29.96,NW,315,9.0,26.0,57,0.00,,,0.00,63,WeatherCatV1.24B11,2014-01-18 17:50:00,
2014-01-18 11:54:00,39.5,26.0,29.95,WNW,302,19.0,27.0,58,0.00,,,0.00,69,WeatherCatV1.24B11,2014-01-18 17:54:00,
2014-01-18 11:55:00,39.4,25.9,29.95,WNW,299,18.0,29.0,58,0.00,,,0.00,67,WeatherCatV1.24B11,2014-01-18 17:55:00,
2014-01-18 11:59:00,39.4,25.9,29.96,WNW,303,12.0,19.0,58,0.00,,,0.00,62,WeatherCatV1.24B11,2014-01-18 17:59:00,
2014-01-18 12:00:00,39.4,25.9,29.96,NW,313,7.0,19.0,58,0.00,,,0.00,62,WeatherCatV1.24B11,2014-01-18 18:00:00,
2014-01-18 12:01:00,39.4,25.9,29.96,NNW,328,21.0,21.0,58,0.00,,,0.00,63,WeatherCatV1.24B11,2014-01-18 18:01:00,
2014-01-18 12:04:00,39.4,25.9,29.97,NW,307,29.0,29.0,58,0.00,,,0.00,72,WeatherCatV1.24B11,2014-01-18 18:04:00,
2014-01-18 12:05:00,39.4,25.9,29.96,WNW,300,25.0,29.0,58,0.00,,,0.00,72,WeatherCatV1.24B11,2014-01-18 18:05:00,
2014-01-18 12:06:00,39.4,25.9,29.96,NNW,344,19.0,29.0,58,0.00,,,0.00,72,WeatherCatV1.24B11,2014-01-18 18:06:00,
2014-01-18 12:10:00,39.4,25.9,29.96,NW,304,13.0,29.0,58,0.00,,,0.00,67,WeatherCatV1.24B11,2014-01-18 18:10:00,
2014-01-18 12:11:00,39.4,25.9,29.96,NNW,331,4.0,24.0,58,0.00,,,0.00,77,WeatherCatV1.24B11,2014-01-18 18:11:00,
2014-01-18 12:15:00,39.4,25.9,29.96,NW,317,19.0,23.0,58,0.00,,,0.00,84,WeatherCatV1.24B11,2014-01-18 18:15:00,
2014-01-18 12:16:00,39.4,25.9,29.96,NNE,26,23.0,29.0,58,0.00,,,0.00,97,WeatherCatV1.24B11,2014-01-18 18:16:00,
2014-01-18 12:20:00,39.4,25.5,29.96,WNW,291,17.0,26.0,57,0.00,,,0.00,118,WeatherCatV1.24B11,2014-01-18 18:20:00,
2014-01-18 12:21:00,39.4,25.5,29.96,NNW,333,18.0,26.0,57,0.00,,,0.00,104,WeatherCatV1.24B11,2014-01-18 18:21:00,
2014-01-18 12:23:00,39.5,25.5,29.96,NW,307,10.0,30.0,57,0.00,,,0.00,125,WeatherCatV1.24B11,2014-01-18 18:23:00,
2014-01-18 12:25:00,39.5,25.5,29.96,NW,323,20.0,33.0,57,0.00,,,0.00,118,WeatherCatV1.24B11,2014-01-18 18:25:00,
2014-01-18 12:26:00,39.5,25.5,29.96,NW,318,20.0,33.0,57,0.00,,,0.00,118,WeatherCatV1.24B11,2014-01-18 18:26:00,
2014-01-18 12:28:00,39.6,25.6,29.97,ENE,59,18.0,28.0,57,0.00,,,0.00,125,WeatherCatV1.24B11,2014-01-18 18:28:00,
2014-01-18 12:30:00,39.7,25.7,29.97,NW,323,7.0,21.0,57,0.00,,,0.00,158,WeatherCatV1.24B11,2014-01-18 18:30:00,
2014-01-18 12:31:00,39.7,25.7,29.97,NW,312,13.0,26.0,57,0.00,,,0.00,144,WeatherCatV1.24B11,2014-01-18 18:31:00,
2014-01-18 12:32:00,39.7,25.7,29.96,NW,326,15.0,26.0,57,0.00,,,0.00,144,WeatherCatV1.24B11,2014-01-18 18:32:00,
2014-01-18 12:33:00,39.7,25.7,29.96,WNW,303,16.0,30.0,57,0.00,,,0.00,142,WeatherCatV1.24B11,2014-01-18 18:33:00,
2014-01-18 12:35:00,39.7,25.7,29.97,NNW,333,12.0,19.0,57,0.00,,,0.00,134,WeatherCatV1.24B11,2014-01-18 18:35:00,
2014-01-18 12:36:00,39.8,25.8,29.96,NNE,21,10.0,19.0,57,0.00,,,0.00,113,WeatherCatV1.24B11,2014-01-18 18:36:00,
2014-01-18 12:37:00,39.8,25.8,29.96,NW,311,11.0,19.0,57,0.00,,,0.00,109,WeatherCatV1.24B11,2014-01-18 18:37:00,
2014-01-18 12:38:00,39.7,25.7,29.96,NW,306,11.0,36.0,57,0.00,,,0.00,137,WeatherCatV1.24B11,2014-01-18 18:38:00,
2014-01-18 12:40:00,39.7,25.7,29.95,NNW,333,25.0,28.0,57,0.00,,,0.00,169,WeatherCatV1.24B11,2014-01-18 18:40:00,
2014-01-18 12:41:00,39.7,25.7,29.96,WNW,300,29.0,31.0,57,0.00,,,0.00,169,WeatherCatV1.24B11,2014-01-18 18:41:00,
2014-01-18 12:42:00,39.7,25.7,29.96,NW,309,16.0,31.0,57,0.00,,,0.00,169,WeatherCatV1.24B11,2014-01-18 18:42:00,
2014-01-18 12:44:00,39.7,25.3,29.96,NW,312,14.0,25.0,56,0.00,,,0.00,155,WeatherCatV1.24B11,2014-01-18 18:44:00,
2014-01-18 12:45:00,39.8,25.8,29.97,WNW,297,12.0,22.0,57,0.00,,,0.00,156,WeatherCatV1.24B11,2014-01-18 18:45:00,
2014-01-18 12:46:00,39.8,25.8,29.96,NW,311,25.0,29.0,57,0.00,,,0.00,148,WeatherCatV1.24B11,2014-01-18 18:46:00,
2014-01-18 12:47:00,39.8,25.8,29.96,NNW,346,9.0,29.0,57,0.00,,,0.00,135,WeatherCatV1.24B11,2014-01-18 18:47:00,
2014-01-18 12:49:00,39.8,25.8,29.97,North,351,15.0,28.0,57,0.00,,,0.00,146,WeatherCatV1.24B11,2014-01-18 18:49:00,
2014-01-18 12:51:00,39.8,25.4,29.95,WNW,298,16.0,28.0,56,0.00,,,0.00,185,WeatherCatV1.24B11,2014-01-18 18:51:00,
2014-01-18 12:52:00,39.8,25.4,29.96,North,350,9.0,31.0,56,0.00,,,0.00,163,WeatherCatV1.24B11,2014-01-18 18:52:00,
2014-01-18 12:53:00,39.8,25.4,29.96,NW,311,20.0,31.0,56,0.00,,,0.00,174,WeatherCatV1.24B11,2014-01-18 18:53:00,
2014-01-18 12:54:00,39.8,25.4,29.96,NNW,330,28.0,33.0,56,0.00,,,0.00,167,WeatherCatV1.24B11,2014-01-18 18:54:00,
2014-01-18 12:56:00,39.8,25.4,29.96,NNE,32,14.0,31.0,56,0.00,,,0.00,176,WeatherCatV1.24B11,2014-01-18 18:56:00,
2014-01-18 12:58:00,39.8,25.4,29.96,NNW,344,17.0,29.0,56,0.00,,,0.00,174,WeatherCatV1.24B11,2014-01-18 18:58:00,
2014-01-18 13:00:00,39.8,25.4,29.96,NW,325,24.0,25.0,56,0.00,,,0.00,186,WeatherCatV1.24B11,2014-01-18 19:00:00,
2014-01-18 13:01:00,39.8,25.4,29.95,NW,307,21.0,33.0,56,0.00,,,0.00,202,WeatherCatV1.24B11,2014-01-18 19:01:00,
2014-01-18 13:03:00,39.9,25.5,29.96,NNW,327,20.0,27.0,56,0.00,,,0.00,202,WeatherCatV1.24B11,2014-01-18 19:03:00,
2014-01-18 13:06:00,39.8,25.0,29.96,NW,319,8.0,33.0,55,0.00,,,0.00,188,WeatherCatV1.24B11,2014-01-18 19:06:00,
2014-01-18 13:08:00,39.9,25.1,29.97,NNW,330,17.0,32.0,55,0.00,,,0.00,213,WeatherCatV1.24B11,2014-01-18 19:08:00,
2014-01-18 13:09:00,39.9,25.5,29.96,NW,317,6.0,32.0,56,0.00,,,0.00,183,WeatherCatV1.24B11,2014-01-18 19:09:00,
2014-01-18 13:11:00,40.0,25.1,29.96,NW,313,7.0,23.0,55,0.00,,,0.00,162,WeatherCatV1.24B11,2014-01-18 19:11:00,
2014-01-18 13:12:00,40.0,25.1,29.96,North,5,23.0,23.0,55,0.00,,,0.00,176,WeatherCatV1.24B11,2014-01-18 19:12:00,
2014-01-18 13:13:00,40.0,25.1,29.97,WNW,296,19.0,37.0,55,0.00,,,0.00,165,WeatherCatV1.24B11,2014-01-18 19:13:00,
2014-01-18 13:14:00,40.0,25.1,29.97,WNW,301,10.0,37.0,55,0.00,,,0.00,185,WeatherCatV1.24B11,2014-01-18 19:14:00,
2014-01-18 13:16:00,40.0,25.1,29.97,North,350,19.0,19.0,55,0.00,,,0.00,199,WeatherCatV1.24B11,2014-01-18 19:16:00,
2014-01-18 13:17:00,40.0,25.1,29.96,NW,306,27.0,28.0,55,0.00,,,0.00,204,WeatherCatV1.24B11,2014-01-18 19:17:00,
2014-01-18 13:18:00,40.0,25.1,29.97,NW,318,27.0,28.0,55,0.00,,,0.00,178,WeatherCatV1.24B11,2014-01-18 19:18:00,
2014-01-18 13:19:00,39.9,25.5,29.97,North,355,11.0,27.0,56,0.00,,,0.00,183,WeatherCatV1.24B11,2014-01-18 19:19:00,
2014-01-18 13:21:00,39.9,25.1,29.97,NW,315,12.0,25.0,55,0.00,,,0.00,162,WeatherCatV1.24B11,2014-01-18 19:21:00,
2014-01-18 13:22:00,39.9,25.1,29.97,NNW,335,15.0,25.0,55,0.00,,,0.00,158,WeatherCatV1.24B11,2014-01-18 19:22:00,
2014-01-18 13:24:00,39.8,25.0,29.97,NW,311,22.0,29.0,55,0.00,,,0.00,165,WeatherCatV1.24B11,2014-01-18 19:24:00,
2014-01-18 13:26:00,39.8,25.4,29.96,NW,318,18.0,21.0,56,0.00,,,0.00,174,WeatherCatV1.24B11,2014-01-18 19:26:00,
2014-01-18 13:27:00,39.8,25.4,29.97,NW,308,17.0,40.0,56,0.00,,,0.00,174,WeatherCatV1.24B11,2014-01-18 19:27:00,
2014-01-18 13:29:00,39.8,25.4,29.97,NNW,346,14.0,24.0,56,0.00,,,0.00,169,WeatherCatV1.24B11,2014-01-18 19:29:00,
2014-01-18 13:30:00,39.8,25.4,29.97,NW,322,15.0,24.0,56,0.00,,,0.00,169,WeatherCatV1.24B11,2014-01-18 19:30:00,
2014-01-18 13:31:00,39.8,25.4,29.97,NW,309,14.0,24.0,56,0.00,,,0.00,153,WeatherCatV1.24B11,2014-01-18 19:31:00,
2014-01-18 13:32:00,39.8,25.4,29.98,NNE,19,10.0,18.0,56,0.00,,,0.00,149,WeatherCatV1.24B11,2014-01-18 19:32:00,
2014-01-18 13:34:00,39.8,25.4,29.97,NW,310,12.0,19.0,56,0.00,,,0.00,139,WeatherCatV1.24B11,2014-01-18 19:34:00,
2014-01-18 13:35:00,39.8,25.4,29.98,WNW,293,17.0,19.0,56,0.00,,,0.00,141,WeatherCatV1.24B11,2014-01-18 19:35:00,
2014-01-18 13:37:00,39.8,25.4,29.97,NW,323,19.0,22.0,56,0.00,,,0.00,163,WeatherCatV1.24B11,2014-01-18 19:37:00,
2014-01-18 13:38:00,39.8,25.4,29.98,NW,322,6.0,31.0,56,0.00,,,0.00,158,WeatherCatV1.24B11,2014-01-18 19:38:00,
2014-01-18 13:40:00,39.8,25.8,29.98,NNW,333,6.0,20.0,57,0.00,,,0.00,130,WeatherCatV1.24B11,2014-01-18 19:40:00,
2014-01-18 13:42:00,39.8,25.8,29.98,NNW,344,21.0,28.0,57,0.00,,,0.00,118,WeatherCatV1.24B11,2014-01-18 19:42:00,
2014-01-18 13:43:00,39.8,25.8,29.98,North,355,18.0,27.0,57,0.00,,,0.00,127,WeatherCatV1.24B11,2014-01-18 19:43:00,
2014-01-18 13:45:00,39.7,25.7,29.98,North,5,14.0,30.0,57,0.00,,,0.00,127,WeatherCatV1.24B11,2014-01-18 19:45:00,
2014-01-18 13:47:00,39.6,25.6,29.98,NNW,332,10.0,33.0,57,0.00,,,0.00,158,WeatherCatV1.24B11,2014-01-18 19:47:00,
2014-01-18 13:48:00,39.5,25.5,29.98,North,349,14.0,21.0,57,0.00,,,0.00,142,WeatherCatV1.24B11,2014-01-18 19:48:00,
2014-01-18 13:50:00,39.5,25.5,29.99,NNE,17,13.0,26.0,57,0.00,,,0.00,132,WeatherCatV1.24B11,2014-01-18 19:50:00,
2014-01-18 13:51:00,39.5,26.0,29.99,NW,315,18.0,29.0,58,0.00,,,0.00,142,WeatherCatV1.24B11,2014-01-18 19:51:00,
2014-01-18 13:52:00,39.4,25.9,29.98,WNW,286,9.0,29.0,58,0.00,,,0.00,134,WeatherCatV1.24B11,2014-01-18 19:52:00,
2014-01-18 13:53:00,39.4,25.9,29.98,NNE,16,18.0,25.0,58,0.00,,,0.00,128,WeatherCatV1.24B11,2014-01-18 19:53:00,
2014-01-18 13:55:00,39.4,25.9,29.99,NNW,336,25.0,25.0,58,0.00,,,0.00,137,WeatherCatV1.24B11,2014-01-18 19:55:00,
2014-01-18 13:56:00,39.4,25.9,29.99,NNE,13,12.0,25.0,58,0.00,,,0.00,128,WeatherCatV1.24B11,2014-01-18 19:56:00,
2014-01-18 13:57:00,39.4,25.9,29.98,NW,313,15.0,30.0,58,0.00,,,0.00,141,WeatherCatV1.24B11,2014-01-18 19:57:00,
2014-01-18 13:58:00,39.4,25.9,29.99,NNW,329,13.0,30.0,58,0.00,,,0.00,141,WeatherCatV1.24B11,2014-01-18 19:58:00,
2014-01-18 14:00:00,39.3,25.8,29.98,NW,326,16.0,19.0,58,0.00,,,0.00,127,WeatherCatV1.24B11,2014-01-18 20:00:00,
2014-01-18 14:01:00,39.3,25.8,29.98,North,0,5.0,19.0,58,0.00,,,0.00,127,WeatherCatV1.24B11,2014-01-18 20:01:00,
2014-01-18 14:02:00,39.3,25.8,29.99,NW,307,16.0,26.0,58,0.00,,,0.00,146,WeatherCatV1.24B11,2014-01-18 20:02:00,
2014-01-18 14:03:00,39.3,25.8,29.99,NW,309,17.0,26.0,58,0.00,,,0.00,160,WeatherCatV1.24B11,2014-01-18 20:03:00,
2014-01-18 14:05:00,39.3,26.2,29.99,North,9,13.0,29.0,59,0.00,,,0.00,192,WeatherCatV1.24B11,2014-01-18 20:05:00,
2014-01-18 14:06:00,39.3,26.2,29.99,NNW,328,14.0,29.0,59,0.00,,,0.00,200,WeatherCatV1.24B11,2014-01-18 20:06:00,
2014-01-18 14:08:00,39.4,26.3,29.99,NW,311,15.0,22.0,59,0.00,,,0.00,218,WeatherCatV1.24B11,2014-01-18 20:08:00,
2014-01-18 14:10:00,39.4,26.3,29.99,NNE,17,11.0,26.0,59,0.00,,,0.00,220,WeatherCatV1.24B11,2014-01-18 20:10:00,
2014-01-18 14:11:00,39.4,26.3,30.00,NW,309,22.0,29.0,59,0.00,,,0.00,246,WeatherCatV1.24B11,2014-01-18 20:11:00,
2014-01-18 14:12:00,39.4,26.3,29.99,NNW,327,19.0,29.0,59,0.00,,,0.00,246,WeatherCatV1.24B11,2014-01-18 20:12:00,
2014-01-18 14:13:00,39.4,26.3,29.99,NNW,330,11.0,29.0,59,0.00,,,0.00,255,WeatherCatV1.24B11,2014-01-18 20:13:00,
2014-01-18 14:14:00,39.4,26.3,29.99,NW,312,14.0,20.0,59,0.00,,,0.00,248,WeatherCatV1.24B11,2014-01-18 20:14:00,
2014-01-18 14:16:00,39.4,26.3,29.99,North,5,5.0,29.0,59,0.00,,,0.00,156,WeatherCatV1.24B11,2014-01-18 20:16:00,
2014-01-18 14:17:00,39.5,26.4,29.99,NW,323,22.0,29.0,59,0.00,,,0.00,207,WeatherCatV1.24B11,2014-01-18 20:17:00,
2014-01-18 14:18:00,39.5,26.4,30.00,NNW,329,14.0,28.0,59,0.00,,,0.00,207,WeatherCatV1.24B11,2014-01-18 20:18:00,
2014-01-18 14:19:00,39.5,26.4,30.00,NW,321,9.0,28.0,59,0.00,,,0.00,255,WeatherCatV1.24B11,2014-01-18 20:19:00,
2014-01-18 14:21:00,39.8,26.7,30.00,NW,315,25.0,25.0,59,0.00,,,0.00,575,WeatherCatV1.24B11,2014-01-18 20:21:00,
2014-01-18 14:22:00,39.8,26.7,30.00,NNE,13,10.0,25.0,59,0.00,,,0.00,575,WeatherCatV1.24B11,2014-01-18 20:22:00,
2014-01-18 14:23:00,40.0,26.8,30.00,WNW,303,10.0,21.0,59,0.00,,,0.00,575,WeatherCatV1.24B11,2014-01-18 20:23:00,
2014-01-18 14:24:00,40.2,26.6,29.99,NNW,327,5.0,25.0,58,0.00,,,0.00,638,WeatherCatV1.24B11,2014-01-18 20:24:00,
2014-01-18 14:26:00,40.1,26.5,30.00,NW,317,15.0,36.0,58,0.00,,,0.00,204,WeatherCatV1.24B11,2014-01-18 20:26:00,
2014-01-18 14:27:00,40.0,26.0,30.00,NNE,14,22.0,36.0,57,0.00,,,0.00,204,WeatherCatV1.24B11,2014-01-18 20:27:00,
2014-01-18 14:28:00,39.9,25.9,30.00,North,5,6.0,36.0,57,0.00,,,0.00,204,WeatherCatV1.24B11,2014-01-18 20:28:00,
2014-01-18 14:29:00,39.9,26.3,30.00,North,9,12.0,22.0,58,0.00,,,0.00,204,WeatherCatV1.24B11,2014-01-18 20:29:00,
2014-01-18 14:31:00,39.8,25.8,30.00,NW,314,9.0,23.0,57,0.00,,,0.00,111,WeatherCatV1.24B11,2014-01-18 20:31:00,
2014-01-18 14:33:00,39.8,25.8,30.00,NNE,29,13.0,23.0,57,0.00,,,0.00,111,WeatherCatV1.24B11,2014-01-18 20:33:00,
2014-01-18 14:34:00,39.8,25.8,30.00,NNW,348,4.0,28.0,57,0.00,,,0.00,550,WeatherCatV1.24B11,2014-01-18 20:34:00,
2014-01-18 14:35:00,39.9,25.9,30.00,NNW,342,5.0,22.0,57,0.00,,,0.00,550,WeatherCatV1.24B11,2014-01-18 20:35:00,
2014-01-18 14:36:00,40.0,26.4,30.00,NW,312,11.0,22.0,58,0.00,,,0.00,503,WeatherCatV1.24B11,2014-01-18 20:36:00,
2014-01-18 14:38:00,40.1,26.5,30.00,NW,323,17.0,26.0,58,0.00,,,0.00,503,WeatherCatV1.24B11,2014-01-18 20:38:00,
2014-01-18 14:39:00,40.2,26.6,30.00,WNW,294,19.0,19.0,58,0.00,,,0.00,503,WeatherCatV1.24B11,2014-01-18 20:39:00,
2014-01-18 14:40:00,40.3,26.3,30.01,NW,306,7.0,19.0,57,0.00,,,0.00,171,WeatherCatV1.24B11,2014-01-18 20:40:00,
2014-01-18 14:41:00,40.3,26.3,30.00,NW,306,14.0,25.0,57,0.00,,,0.00,172,WeatherCatV1.24B11,2014-01-18 20:41:00,
2014-01-18 14:43:00,40.1,26.1,30.01,North,355,14.0,25.0,57,0.00,,,0.00,156,WeatherCatV1.24B11,2014-01-18 20:43:00,
2014-01-18 14:44:00,40.0,26.0,30.01,NNW,340,13.0,25.0,57,0.00,,,0.00,148,WeatherCatV1.24B11,2014-01-18 20:44:00,
2014-01-18 14:45:00,40.0,26.0,30.01,WNW,286,17.0,20.0,57,0.00,,,0.00,171,WeatherCatV1.24B11,2014-01-18 20:45:00,
2014-01-18 14:47:00,39.9,26.3,30.01,NW,306,14.0,20.0,58,0.00,,,0.00,141,WeatherCatV1.24B11,2014-01-18 20:47:00,
2014-01-18 14:48:00,39.8,26.2,30.01,NNW,347,12.0,32.0,58,0.00,,,0.00,165,WeatherCatV1.24B11,2014-01-18 20:48:00,
2014-01-18 14:49:00,39.8,26.2,30.01,NW,315,13.0,32.0,58,0.00,,,0.00,195,WeatherCatV1.24B11,2014-01-18 20:49:00,
2014-01-18 14:50:00,39.8,26.2,30.02,NNE,26,10.0,24.0,58,0.00,,,0.00,199,WeatherCatV1.24B11,2014-01-18 20:50:00,
2014-01-18 14:52:00,39.8,26.2,30.02,NNW,336,11.0,26.0,58,0.00,,,0.00,113,WeatherCatV1.24B11,2014-01-18 20:52:00,
2014-01-18 14:53:00,39.7,26.1,30.02,WNW,294,22.0,22.0,58,0.00,,,0.00,139,WeatherCatV1.24B11,2014-01-18 20:53:00,
2014-01-18 14:54:00,39.7,26.1,30.02,NNW,335,13.0,24.0,58,0.00,,,0.00,148,WeatherCatV1.24B11,2014-01-18 20:54:00,
2014-01-18 14:55:00,39.7,26.1,30.02,NNW,329,11.0,24.0,58,0.00,,,0.00,204,WeatherCatV1.24B11,2014-01-18 20:55:00,
2014-01-18 14:56:00,39.7,26.1,30.02,North,350,5.0,18.0,58,0.00,,,0.00,214,WeatherCatV1.24B11,2014-01-18 20:56:00,
2014-01-18 14:57:00,39.7,26.1,30.02,NW,314,10.0,23.0,58,0.00,,,0.00,214,WeatherCatV1.24B11,2014-01-18 20:57:00,
2014-01-18 14:58:00,39.7,26.1,30.02,NNW,327,10.0,23.0,58,0.00,,,0.00,183,WeatherCatV1.24B11,2014-01-18 20:58:00,
2014-01-18 14:59:00,39.7,26.1,30.02,NW,321,7.0,23.0,58,0.00,,,0.00,183,WeatherCatV1.24B11,2014-01-18 20:59:00,
2014-01-18 15:00:00,39.7,26.1,30.02,NW,323,11.0,12.0,58,0.00,,,0.00,183,WeatherCatV1.24B11,2014-01-18 21:00:00,
2014-01-18 15:01:00,39.9,26.3,30.02,North,355,21.0,22.0,58,0.00,,,0.00,183,WeatherCatV1.24B11,2014-01-18 21:01:00,
2014-01-18 15:02:00,39.9,25.9,30.02,NW,318,10.0,27.0,57,0.00,,,0.00,197,WeatherCatV1.24B11,2014-01-18 21:02:00,
2014-01-18 15:03:00,39.9,25.9,30.02,NW,304,12.0,31.0,57,0.00,,,0.00,193,WeatherCatV1.24B11,2014-01-18 21:03:00,
2014-01-18 15:05:00,39.8,25.4,30.02,NW,318,6.0,31.0,56,0.00,,,0.00,181,WeatherCatV1.24B11,2014-01-18 21:05:00,
2014-01-18 15:06:00,39.7,25.3,30.02,NNW,330,7.0,28.0,56,0.00,,,0.00,172,WeatherCatV1.24B11,2014-01-18 21:06:00,
2014-01-18 15:08:00,39.7,25.3,30.03,NW,307,9.0,16.0,56,0.00,,,0.00,165,WeatherCatV1.24B11,2014-01-18 21:08:00,
2014-01-18 15:10:00,39.7,25.7,30.02,NNW,344,5.0,18.0,57,0.00,,,0.00,172,WeatherCatV1.24B11,2014-01-18 21:10:00,
2014-01-18 15:11:00,39.8,25.8,30.03,NW,311,11.0,18.0,57,0.00,,,0.00,163,WeatherCatV1.24B11,2014-01-18 21:11:00,
2014-01-18 15:13:00,39.7,25.7,30.03,NNW,345,11.0,21.0,57,0.00,,,0.00,186,WeatherCatV1.24B11,2014-01-18 21:13:00,
2014-01-18 15:14:00,39.8,25.8,30.03,NW,319,12.0,17.0,57,0.00,,,0.00,160,WeatherCatV1.24B11,2014-01-18 21:14:00,
2014-01-18 15:15:00,39.8,25.8,30.03,NNE,15,15.0,19.0,57,0.00,,,0.00,139,WeatherCatV1.24B11,2014-01-18 21:15:00,
2014-01-18 15:16:00,39.8,25.8,30.03,NW,313,12.0,19.0,57,0.00,,,0.00,123,WeatherCatV1.24B11,2014-01-18 21:16:00,
2014-01-18 15:17:00,39.8,25.8,30.03,NW,304,12.0,15.0,57,0.00,,,0.00,139,WeatherCatV1.24B11,2014-01-18 21:17:00,
2014-01-18 15:19:00,39.7,25.7,30.03,NNW,328,11.0,18.0,57,0.00,,,0.00,111,WeatherCatV1.24B11,2014-01-18 21:19:00,
2014-01-18 15:20:00,39.7,25.7,30.04,NE,40,17.0,17.0,57,0.00,,,0.00,98,WeatherCatV1.24B11,2014-01-18 21:20:00,
2014-01-18 15:21:00,39.6,25.6,30.04,NNE,22,6.0,29.0,57,0.00,,,0.00,98,WeatherCatV1.24B11,2014-01-18 21:21:00,
2014-01-18 15:22:00,39.5,25.5,30.04,NNW,341,25.0,25.0,57,0.00,,,0.00,109,WeatherCatV1.24B11,2014-01-18 21:22:00,
2014-01-18 15:24:00,39.5,25.1,30.04,NNW,348,16.0,26.0,56,0.00,,,0.00,116,WeatherCatV1.24B11,2014-01-18 21:24:00,
2014-01-18 15:25:00,39.5,25.1,30.04,NW,314,10.0,26.0,56,0.00,,,0.00,128,WeatherCatV1.24B11,2014-01-18 21:25:00,
2014-01-18 15:26:00,39.5,25.1,30.04,NNW,335,11.0,17.0,56,0.00,,,0.00,120,WeatherCatV1.24B11,2014-01-18 21:26:00,
2014-01-18 15:28:00,39.4,25.0,30.04,NNE,24,23.0,25.0,56,0.00,,,0.00,118,WeatherCatV1.24B11,2014-01-18 21:28:00,
2014-01-18 15:29:00,39.3,24.9,30.04,NW,317,12.0,24.0,56,0.00,,,0.00,88,WeatherCatV1.24B11,2014-01-18 21:29:00,
2014-01-18 15:30:00,39.3,24.9,30.04,NW,313,15.0,20.0,56,0.00,,,0.00,88,WeatherCatV1.24B11,2014-01-18 21:30:00,
2014-01-18 15:31:00,39.3,24.9,30.04,NNW,335,9.0,20.0,56,0.00,,,0.00,77,WeatherCatV1.24B11,2014-01-18 21:31:00,
2014-01-18 15:32:00,39.3,24.9,30.05,NNW,334,14.0,19.0,56,0.00,,,0.00,93,WeatherCatV1.24B11,2014-01-18 21:32:00,
2014-01-18 15:33:00,39.2,24.8,30.05,North,0,11.0,19.0,56,0.00,,,0.00,111,WeatherCatV1.24B11,2014-01-18 21:33:00,
2014-01-18 15:34:00,39.2,24.8,30.05,NNW,340,5.0,22.0,56,0.00,,,0.00,134,WeatherCatV1.24B11,2014-01-18 21:34:00,
2014-01-18 15:35:00,39.1,25.2,30.05,NW,316,6.0,22.0,57,0.00,,,0.00,130,WeatherCatV1.24B11,2014-01-18 21:35:00,
2014-01-18 15:36:00,39.2,25.3,30.05,NNE,23,18.0,18.0,57,0.00,,,0.00,114,WeatherCatV1.24B11,2014-01-18 21:36:00,
2014-01-18 15:37:00,39.2,25.3,30.05,NNW,340,4.0,18.0,57,0.00,,,0.00,118,WeatherCatV1.24B11,2014-01-18 21:37:00,
2014-01-18 15:39:00,39.2,25.3,30.05,NW,317,15.0,20.0,57,0.00,,,0.00,104,WeatherCatV1.24B11,2014-01-18 21:39:00,
2014-01-18 15:40:00,39.1,25.2,30.05,WNW,303,11.0,20.0,57,0.00,,,0.00,114,WeatherCatV1.24B11,2014-01-18 21:40:00,
2014-01-18 15:41:00,39.1,25.2,30.05,NW,326,23.0,23.0,57,0.00,,,0.00,127,WeatherCatV1.24B11,2014-01-18 21:41:00,
2014-01-18 15:42:00,39.1,25.2,30.05,NNW,337,23.0,23.0,57,0.00,,,0.00,134,WeatherCatV1.24B11,2014-01-18 21:42:00,
2014-01-18 15:44:00,39.1,25.2,30.05,NW,314,12.0,22.0,57,0.00,,,0.00,134,WeatherCatV1.24B11,2014-01-18 21:44:00,
2014-01-18 15:45:00,39.1,25.2,30.05,NNW,336,9.0,22.0,57,0.00,,,0.00,134,WeatherCatV1.24B11,2014-01-18 21:45:00,
2014-01-18 15:47:00,39.1,25.6,30.06,NW,325,15.0,33.0,58,0.00,,,0.00,130,WeatherCatV1.24B11,2014-01-18 21:47:00,
2014-01-18 15:49:00,39.1,25.6,30.06,NW,309,14.0,25.0,58,0.00,,,0.00,118,WeatherCatV1.24B11,2014-01-18 21:49:00,
2014-01-18 15:50:00,39.1,25.6,30.06,NNW,334,15.0,25.0,58,0.00,,,0.00,118,WeatherCatV1.24B11,2014-01-18 21:50:00,
2014-01-18 15:52:00,39.2,25.7,30.06,NNW,328,10.0,22.0,58,0.00,,,0.00,123,WeatherCatV1.24B11,2014-01-18 21:52:00,
2014-01-18 15:54:00,39.1,25.6,30.07,NNE,13,21.0,24.0,58,0.00,,,0.00,232,WeatherCatV1.24B11,2014-01-18 21:54:00,
2014-01-18 15:55:00,39.1,25.6,30.07,NW,326,18.0,24.0,58,0.00,,,0.00,232,WeatherCatV1.24B11,2014-01-18 21:55:00,
2014-01-18 15:56:00,39.1,25.6,30.06,NW,309,13.0,24.0,58,0.00,,,0.00,251,WeatherCatV1.24B11,2014-01-18 21:56:00,
2014-01-18 15:57:00,39.2,25.7,30.07,NW,323,5.0,24.0,58,0.00,,,0.00,251,WeatherCatV1.24B11,2014-01-18 21:57:00,
2014-01-18 15:58:00,39.3,25.8,30.06,NNW,337,14.0,17.0,58,0.00,,,0.00,141,WeatherCatV1.24B11,2014-01-18 21:58:00,
2014-01-18 16:00:00,39.3,25.8,30.06,NW,304,25.0,25.0,58,0.00,,,0.00,132,WeatherCatV1.24B11,2014-01-18 22:00:00,
2014-01-18 16:01:00,39.3,25.8,30.06,NW,317,10.0,25.0,58,0.00,,,0.00,132,WeatherCatV1.24B11,2014-01-18 22:01:00,
2014-01-18 16:02:00,39.3,25.8,30.07,NNW,327,6.0,12.0,58,0.00,,,0.00,132,WeatherCatV1.24B11,2014-01-18 22:02:00,
2014-01-18 16:03:00,39.4,25.9,30.07,NNW,338,12.0,15.0,58,0.00,,,0.00,116,WeatherCatV1.24B11,2014-01-18 22:03:00,
2014-01-18 16:05:00,39.4,25.5,30.07,NW,307,15.0,21.0,57,0.00,,,0.00,113,WeatherCatV1.24B11,2014-01-18 22:05:00,
2014-01-18 16:06:00,39.4,25.5,30.07,NNE,22,10.0,21.0,57,0.00,,,0.00,113,WeatherCatV1.24B11,2014-01-18 22:06:00,
2014-01-18 16:07:00,39.3,25.4,30.07,NE,34,10.0,19.0,57,0.00,,,0.00,134,WeatherCatV1.24B11,2014-01-18 22:07:00,
2014-01-18 16:09:00,39.3,25.4,30.07,NW,315,12.0,29.0,57,0.00,,,0.00,97,WeatherCatV1.24B11,2014-01-18 22:09:00,
2014-01-18 16:10:00,39.2,25.3,30.07,NNE,17,11.0,20.0,57,0.00,,,0.00,97,WeatherCatV1.24B11,2014-01-18 22:10:00,
2014-01-18 16:11:00,39.2,25.3,30.07,North,349,20.0,25.0,57,0.00,,,0.00,104,WeatherCatV1.24B11,2014-01-18 22:11:00,
2014-01-18 16:12:00,39.1,24.7,30.08,North,355,18.0,25.0,56,0.00,,,0.00,67,WeatherCatV1.24B11,2014-01-18 22:12:00,
2014-01-18 16:13:00,39.1,24.7,30.08,NW,312,6.0,19.0,56,0.00,,,0.00,67,WeatherCatV1.24B11,2014-01-18 22:13:00,
2014-01-18 16:14:00,39.1,24.7,30.08,NNE,22,12.0,18.0,56,0.00,,,0.00,67,WeatherCatV1.24B11,2014-01-18 22:14:00,
2014-01-18 16:15:00,39.0,24.6,30.09,NNW,329,4.0,20.0,56,0.00,,,0.00,76,WeatherCatV1.24B11,2014-01-18 22:15:00,
2014-01-18 16:16:00,39.0,24.6,30.09,North,355,10.0,20.0,56,0.00,,,0.00,76,WeatherCatV1.24B11,2014-01-18 22:16:00,
2014-01-18 16:17:00,38.9,25.0,30.08,North,9,14.0,20.0,57,0.00,,,0.00,77,WeatherCatV1.24B11,2014-01-18 22:17:00,
2014-01-18 16:18:00,38.9,25.0,30.09,NNW,342,10.0,17.0,57,0.00,,,0.00,69,WeatherCatV1.24B11,2014-01-18 22:18:00,
2014-01-18 16:19:00,38.8,24.9,30.09,NNW,332,9.0,18.0,57,0.00,,,0.00,81,WeatherCatV1.24B11,2014-01-18 22:19:00,
2014-01-18 16:20:00,38.8,24.9,30.09,WNW,300,11.0,17.0,57,0.00,,,0.00,86,WeatherCatV1.24B11,2014-01-18 22:20:00,
2014-01-18 16:21:00,38.8,24.9,30.09,NW,321,11.0,21.0,57,0.00,,,0.00,88,WeatherCatV1.24B11,2014-01-18 22:21:00,
2014-01-18 16:22:00,38.8,24.9,30.09,NNW,338,7.0,23.0,57,0.00,,,0.00,84,WeatherCatV1.24B11,2014-01-18 22:22:00,
2014-01-18 16:23:00,38.8,24.9,30.09,NW,321,5.0,23.0,57,0.00,,,0.00,79,WeatherCatV1.24B11,2014-01-18 22:23:00,
2014-01-18 16:24:00,38.7,25.2,30.09,NNW,331,4.0,16.0,58,0.00,,,0.00,81,WeatherCatV1.24B11,2014-01-18 22:24:00,
2014-01-18 16:26:00,38.8,25.3,30.09,North,355,5.0,12.0,58,0.00,,,0.00,83,WeatherCatV1.24B11,2014-01-18 22:26:00,
2014-01-18 16:28:00,38.7,25.2,30.09,NNW,346,10.0,30.0,58,0.00,,,0.00,84,WeatherCatV1.24B11,2014-01-18 22:28:00,
2014-01-18 16:29:00,38.7,25.2,30.09,NNE,24,16.0,30.0,58,0.00,,,0.00,84,WeatherCatV1.24B11,2014-01-18 22:29:00,
2014-01-18 16:30:00,38.7,24.8,30.09,NW,325,9.0,24.0,57,0.00,,,0.00,72,WeatherCatV1.24B11,2014-01-18 22:30:00,
2014-01-18 16:31:00,38.7,24.8,30.09,NW,306,10.0,25.0,57,0.00,,,0.00,70,WeatherCatV1.24B11,2014-01-18 22:31:00,
2014-01-18 16:34:00,38.6,24.7,30.09,NW,323,9.0,22.0,57,0.00,,,0.00,70,WeatherCatV1.24B11,2014-01-18 22:34:00,
2014-01-18 16:35:00,38.6,25.1,30.09,NW,311,14.0,23.0,58,0.00,,,0.00,74,WeatherCatV1.24B11,2014-01-18 22:35:00,
2014-01-18 16:36:00,38.6,25.1,30.09,WNW,303,11.0,23.0,58,0.00,,,0.00,70,WeatherCatV1.24B11,2014-01-18 22:36:00,
2014-01-18 16:39:00,38.6,25.1,30.10,NW,315,12.0,15.0,58,0.00,,,0.00,70,WeatherCatV1.24B11,2014-01-18 22:39:00,
2014-01-18 16:40:00,38.6,25.1,30.10,NW,315,8.0,15.0,58,0.00,,,0.00,69,WeatherCatV1.24B11,2014-01-18 22:40:00,
2014-01-18 16:41:00,38.6,25.1,30.10,NNW,333,10.0,20.0,58,0.00,,,0.00,67,WeatherCatV1.24B11,2014-01-18 22:41:00,
2014-01-18 16:44:00,38.6,25.1,30.10,NW,325,16.0,22.0,58,0.00,,,0.00,93,WeatherCatV1.24B11,2014-01-18 22:44:00,
2014-01-18 16:45:00,38.6,25.1,30.10,NW,313,6.0,22.0,58,0.00,,,0.00,93,WeatherCatV1.24B11,2014-01-18 22:45:00,
2014-01-18 16:46:00,38.7,25.2,30.10,NNW,339,6.0,18.0,58,0.00,,,0.00,74,WeatherCatV1.24B11,2014-01-18 22:46:00,
2014-01-18 16:47:00,38.7,24.8,30.10,NNE,26,6.0,18.0,57,0.00,,,0.00,74,WeatherCatV1.24B11,2014-01-18 22:47:00,
2014-01-18 16:50:00,38.8,24.9,30.10,NNW,332,5.0,17.0,57,0.00,,,0.00,93,WeatherCatV1.24B11,2014-01-18 22:50:00,
2014-01-18 16:51:00,38.9,25.0,30.10,NW,306,15.0,23.0,57,0.00,,,0.00,62,WeatherCatV1.24B11,2014-01-18 22:51:00,
2014-01-18 16:52:00,38.9,25.0,30.10,NNW,341,19.0,23.0,57,0.00,,,0.00,47,WeatherCatV1.24B11,2014-01-18 22:52:00,
2014-01-18 16:55:00,38.8,24.9,30.10,WNW,303,4.0,11.0,57,0.00,,,0.00,53,WeatherCatV1.24B11,2014-01-18 22:55:00,
2014-01-18 16:56:00,38.7,24.8,30.10,NW,321,7.0,14.0,57,0.00,,,0.00,49,WeatherCatV1.24B11,2014-01-18 22:56:00,
2014-01-18 16:57:00,38.7,24.8,30.10,NW,317,9.0,22.0,57,0.00,,,0.00,47,WeatherCatV1.24B11,2014-01-18 22:57:00,
2014-01-18 17:00:00,38.5,24.6,30.10,NNE,24,11.0,21.0,57,0.00,,,0.00,39,WeatherCatV1.24B11,2014-01-18 23:00:00,
2014-01-18 17:01:00,38.4,24.5,30.10,NW,310,10.0,14.0,57,0.00,,,0.00,35,WeatherCatV1.24B11,2014-01-18 23:01:00,
2014-01-18 17:02:00,38.4,24.9,30.10,NW,313,8.0,17.0,58,0.00,,,0.00,33,WeatherCatV1.24B11,2014-01-18 23:02:00,
2014-01-18 17:05:00,38.1,24.6,30.10,North,355,11.0,25.0,58,0.00,,,0.00,30,WeatherCatV1.24B11,2014-01-18 23:05:00,
2014-01-18 17:06:00,38.0,24.5,30.10,North,9,4.0,16.0,58,0.00,,,0.00,28,WeatherCatV1.24B11,2014-01-18 23:06:00,
2014-01-18 17:07:00,38.0,24.5,30.11,North,0,12.0,16.0,58,0.00,,,0.00,26,WeatherCatV1.24B11,2014-01-18 23:07:00,
2014-01-18 17:10:00,37.9,24.5,30.10,NNW,344,8.0,19.0,58,0.00,,,0.00,25,WeatherCatV1.24B11,2014-01-18 23:10:00,
2014-01-18 17:11:00,37.8,24.4,30.11,NW,319,7.0,14.0,58,0.00,,,0.00,19,WeatherCatV1.24B11,2014-01-18 23:11:00,
2014-01-18 17:12:00,37.8,24.4,30.10,NNW,342,11.0,20.0,58,0.00,,,0.00,19,WeatherCatV1.24B11,2014-01-18 23:12:00,
2014-01-18 17:15:00,37.7,24.3,30.11,NNE,25,16.0,21.0,58,0.00,,,0.00,16,WeatherCatV1.24B11,2014-01-18 23:15:00,
2014-01-18 17:17:00,37.6,24.2,30.11,North,349,5.0,21.0,58,0.00,,,0.00,16,WeatherCatV1.24B11,2014-01-18 23:17:00,
2014-01-18 17:20:00,37.4,24.4,30.11,North,0,6.0,10.0,59,0.00,,,0.00,14,WeatherCatV1.24B11,2014-01-18 23:20:00,
2014-01-18 17:21:00,37.4,24.4,30.11,WNW,302,6.0,10.0,59,0.00,,,0.00,14,WeatherCatV1.24B11,2014-01-18 23:21:00,
2014-01-18 17:22:00,37.4,24.4,30.11,NNW,340,2.0,10.0,59,0.00,,,0.00,14,WeatherCatV1.24B11,2014-01-18 23:22:00,
2014-01-18 17:23:00,37.3,24.3,30.11,NNW,338,4.0,6.0,59,0.00,,,0.00,14,WeatherCatV1.24B11,2014-01-18 23:23:00,
2014-01-18 17:26:00,37.1,24.1,30.11,NNE,19,9.0,10.0,59,0.00,,,0.00,12,WeatherCatV1.24B11,2014-01-18 23:26:00,
2014-01-18 17:27:00,37.0,24.0,30.11,NW,318,5.0,10.0,59,0.00,,,0.00,12,WeatherCatV1.24B11,2014-01-18 23:27:00,
2014-01-18 17:28:00,37.0,24.0,30.11,NW,318,4.0,9.0,59,0.00,,,0.00,12,WeatherCatV1.24B11,2014-01-18 23:28:00,
2014-01-18 17:31:00,36.8,24.2,30.11,NNW,336,6.0,13.0,60,0.00,,,0.00,9,WeatherCatV1.24B11,2014-01-18 23:31:00,
2014-01-18 17:32:00,36.8,24.2,30.11,NW,311,5.0,10.0,60,0.00,,,0.00,9,WeatherCatV1.24B11,2014-01-18 23:32:00,
2014-01-18 17:33:00,36.8,24.2,30.11,NW,311,3.0,10.0,60,0.00,,,0.00,9,WeatherCatV1.24B11,2014-01-18 23:33:00,
2014-01-18 17:36:00,36.6,24.0,30.11,NNW,345,15.0,15.0,60,0.00,,,0.00,5,WeatherCatV1.24B11,2014-01-18 23:36:00,
2014-01-18 17:37:00,36.6,24.0,30.11,NNW,327,11.0,15.0,60,0.00,,,0.00,5,WeatherCatV1.24B11,2014-01-18 23:37:00,
2014-01-18 17:38:00,36.7,24.5,30.12,NW,317,4.0,15.0,61,0.00,,,0.00,5,WeatherCatV1.24B11,2014-01-18 23:38:00,
2014-01-18 17:39:00,36.6,24.4,30.12,NW,317,3.0,11.0,61,0.00,,,0.00,5,WeatherCatV1.24B11,2014-01-18 23:39:00,
2014-01-18 17:42:00,36.6,24.0,30.11,NNW,331,12.0,13.0,60,0.00,,,0.00,0,WeatherCatV1.24B11,2014-01-18 23:42:00,
2014-01-18 17:43:00,36.5,24.4,30.11,North,349,3.0,12.0,61,0.00,,,0.00,0,WeatherCatV1.24B11,2014-01-18 23:43:00,
2014-01-18 17:44:00,36.5,24.4,30.11,North,349,1.0,7.0,61,0.00,,,0.00,0,WeatherCatV1.24B11,2014-01-18 23:44:00,
2014-01-18 17:47:00,36.4,24.2,30.11,NNW,346,0.0,4.0,61,0.00,,,0.00,0,WeatherCatV1.24B11,2014-01-18 23:47:00,
2014-01-18 17:48:00,36.3,24.2,30.11,NNW,348,0.0,5.0,61,0.00,,,0.00,0,WeatherCatV1.24B11,2014-01-18 23:48:00,
2014-01-18 17:49:00,36.2,24.1,30.11,NNW,346,4.0,6.0,61,0.00,,,0.00,0,WeatherCatV1.24B11,2014-01-18 23:49:00,
2014-01-18 17:52:00,36.0,23.9,30.11,NNW,334,7.0,7.0,61,0.00,,,0.00,0,WeatherCatV1.24B11,2014-01-18 23:52:00,
2014-01-18 17:53:00,36.0,24.3,30.11,NNW,339,6.0,12.0,62,0.00,,,0.00,0,WeatherCatV1.24B11,2014-01-18 23:53:00,
2014-01-18 17:54:00,36.0,24.3,30.11,NW,316,5.0,12.0,62,0.00,,,0.00,0,WeatherCatV1.24B11,2014-01-18 23:54:00,
2014-01-18 17:58:00,35.8,24.1,30.11,NNW,338,4.0,7.0,62,0.00,,,0.00,0,WeatherCatV1.24B11,2014-01-18 23:58:00,
2014-01-18 17:59:00,35.8,24.1,30.11,NNW,330,4.0,7.0,62,0.00,,,0.00,0,WeatherCatV1.24B11,2014-01-18 23:59:00,
2014-01-18 18:00:00,35.7,24.0,30.12,NW,319,9.0,9.0,62,0.00,,,0.00,0,WeatherCatV1.24B11,2014-01-19 00:00:00,
2014-01-18 18:03:00,35.6,23.9,30.12,North,355,8.0,11.0,62,0.00,,,0.00,0,WeatherCatV1.24B11,2014-01-19 00:03:00,
2014-01-18 18:04:00,35.6,23.9,30.12,NW,318,4.0,11.0,62,0.00,,,0.00,0,WeatherCatV1.24B11,2014-01-19 00:04:00,
2014-01-18 18:05:00,35.6,23.9,30.12,NNW,344,5.0,6.0,62,0.00,,,0.00,0,WeatherCatV1.24B11,2014-01-19 00:05:00,
2014-01-18 18:08:00,35.4,24.1,30.12,NW,319,6.0,11.0,63,0.00,,,0.00,0,WeatherCatV1.24B11,2014-01-19 00:08:00,
2014-01-18 18:09:00,35.4,24.1,30.12,North,0,6.0,11.0,63,0.00,,,0.00,0,WeatherCatV1.24B11,2014-01-19 00:09:00,
2014-01-18 18:10:00,35.3,24.0,30.12,North,355,2.0,6.0,63,0.00,,,0.00,0,WeatherCatV1.24B11,2014-01-19 00:10:00,
2014-01-18 18:13:00,35.2,23.9,30.12,NNW,346,5.0,6.0,63,0.00,,,0.00,0,WeatherCatV1.24B11,2014-01-19 00:13:00,
2014-01-18 18:14:00,35.2,23.9,30.12,NNW,346,3.0,6.0,63,0.00,,,0.00,0,WeatherCatV1.24B11,2014-01-19 00:14:00,
2014-01-18 18:15:00,35.1,23.8,30.12,NNW,345,4.0,6.0,63,0.00,,,0.00,0,WeatherCatV1.24B11,2014-01-19 00:15:00,
2014-01-18 18:16:00,35.1,23.8,30.13,NNW,346,0.0,5.0,63,0.00,,,0.00,0,WeatherCatV1.24B11,2014-01-19 00:16:00,
2014-01-18 18:19:00,34.9,24.0,30.13,NNW,331,3.0,9.0,64,0.00,,,0.00,0,WeatherCatV1.24B11,2014-01-19 00:19:00,
2014-01-18 18:20:00,34.9,24.0,30.13,NNW,331,0.0,9.0,64,0.00,,,0.00,0,WeatherCatV1.24B11,2014-01-19 00:20:00,
2014-01-18 18:21:00,34.9,24.0,30.13,NW,326,3.0,7.0,64,0.00,,,0.00,0,WeatherCatV1.24B11,2014-01-19 00:21:00,
2014-01-18 18:24:00,34.8,23.9,30.13,NW,318,2.0,7.0,64,0.00,,,0.00,0,WeatherCatV1.24B11,2014-01-19 00:24:00,
2014-01-18 18:25:00,34.9,24.0,30.13,NW,319,4.0,5.0,64,0.00,,,0.00,0,WeatherCatV1.24B11,2014-01-19 00:25:00,
2014-01-18 18:26:00,34.8,23.9,30.13,NW,316,7.0,9.0,64,0.00,,,0.00,0,WeatherCatV1.24B11,2014-01-19 00:26:00,
2014-01-18 18:29:00,34.8,23.9,30.13,NW,316,2.0,5.0,64,0.00,,,0.00,0,WeatherCatV1.24B11,2014-01-19 00:29:00,
2014-01-18 18:30:00,34.7,23.8,30.13,NW,315,0.0,4.0,64,0.00,,,0.00,0,WeatherCatV1.24B11,2014-01-19 00:30:00,
2014-01-18 18:32:00,34.6,23.7,30.14,NW,315,1.0,4.0,64,0.00,,,0.00,0,WeatherCatV1.24B11,2014-01-19 00:32:00,
2014-01-18 18:34:00,34.4,23.5,30.14,NW,317,3.0,5.0,64,0.00,,,0.00,0,WeatherCatV1.24B11,2014-01-19 00:34:00,
2014-01-18 18:35:00,34.4,23.5,30.14,NW,317,4.0,4.0,64,0.00,,,0.00,0,WeatherCatV1.24B11,2014-01-19 00:35:00,
2014-01-18 18:37:00,34.4,23.9,30.13,NW,317,1.0,3.0,65,0.00,,,0.00,0,WeatherCatV1.24B11,2014-01-19 00:37:00,
2014-01-18 18:39:00,34.4,23.9,30.13,NW,317,1.0,1.0,65,0.00,,,0.00,0,WeatherCatV1.24B11,2014-01-19 00:39:00,
2014-01-18 18:40:00,34.4,23.9,30.13,NW,317,3.0,3.0,65,0.00,,,0.00,0,WeatherCatV1.24B11,2014-01-19 00:40:00,
2014-01-18 18:42:00,34.2,23.7,30.14,NW,317,2.0,4.0,65,0.00,,,0.00,0,WeatherCatV1.24B11,2014-01-19 00:42:00,
2014-01-18 18:44:00,34.1,23.6,30.14,NW,317,1.0,4.0,65,0.00,,,0.00,0,WeatherCatV1.24B11,2014-01-19 00:44:00,
2014-01-18 18:45:00,34.1,23.6,30.14,NW,317,2.0,4.0,65,0.00,,,0.00,0,WeatherCatV1.24B11,2014-01-19 00:45:00,
2014-01-18 18:46:00,34.0,23.5,30.13,NW,317,2.0,3.0,65,0.00,,,0.00,0,WeatherCatV1.24B11,2014-01-19 00:46:00,
2014-01-18 18:48:00,33.8,23.3,30.14,NW,317,0.0,5.0,65,0.00,,,0.00,0,WeatherCatV1.24B11,2014-01-19 00:48:00,
2014-01-18 18:49:00,33.7,23.6,30.14,NW,317,0.0,2.0,66,0.00,,,0.00,0,WeatherCatV1.24B11,2014-01-19 00:49:00,
2014-01-18 18:50:00,33.6,23.5,30.14,NW,317,2.0,2.0,66,0.00,,,0.00,0,WeatherCatV1.24B11,2014-01-19 00:50:00,
2014-01-18 18:51:00,33.6,23.5,30.14,NW,317,0.0,2.0,66,0.00,,,0.00,0,WeatherCatV1.24B11,2014-01-19 00:51:00,
2014-01-18 18:53:00,33.4,23.3,30.14,NW,317,0.0,2.0,66,0.00,,,0.00,0,WeatherCatV1.24B11,2014-01-19 00:53:00,
2014-01-18 18:55:00,33.2,23.1,30.14,NW,317,3.0,3.0,66,0.00,,,0.00,0,WeatherCatV1.24B11,2014-01-19 00:55:00,
2014-01-18 18:56:00,33.1,23.0,30.14,NW,317,1.0,3.0,66,0.00,,,0.00,0,WeatherCatV1.24B11,2014-01-19 00:56:00,
2014-01-18 18:57:00,33.1,23.0,30.14,NW,317,1.0,3.0,66,0.00,,,0.00,0,WeatherCatV1.24B11,2014-01-19 00:57:00,
2014-01-18 18:58:00,32.9,22.8,30.14,NW,317,0.0,3.0,66,0.00,,,0.00,0,WeatherCatV1.24B11,2014-01-19 00:58:00,
2014-01-18 19:00:00,32.8,23.1,30.14,NW,317,0.0,0.0,67,0.00,,,0.00,0,WeatherCatV1.24B11,2014-01-19 01:00:00,
2014-01-18 19:01:00,32.8,23.1,30.14,NW,317,0.0,0.0,67,0.00,,,0.00,0,WeatherCatV1.24B11,2014-01-19 01:01:00,
2014-01-18 19:02:00,32.7,23.0,30.14,NW,317,2.0,3.0,67,0.00,,,0.00,0,WeatherCatV1.24B11,2014-01-19 01:02:00,
2014-01-18 19:04:00,32.6,22.9,30.14,NW,317,3.0,3.0,67,0.00,,,0.00,0,WeatherCatV1.24B11,2014-01-19 01:04:00,
2014-01-18 19:05:00,32.6,22.9,30.14,NW,317,0.0,3.0,67,0.00,,,0.00,0,WeatherCatV1.24B11,2014-01-19 01:05:00,
2014-01-18 19:06:00,32.5,22.8,30.14,NW,317,0.0,3.0,67,0.00,,,0.00,0,WeatherCatV1.24B11,2014-01-19 01:06:00,
2014-01-18 19:07:00,32.5,22.8,30.14,NW,317,0.0,2.0,67,0.00,,,0.00,0,WeatherCatV1.24B11,2014-01-19 01:07:00,
2014-01-18 19:09:00,32.3,22.6,30.14,NW,317,1.0,2.0,67,0.00,,,0.00,0,WeatherCatV1.24B11,2014-01-19 01:09:00,
2014-01-18 19:10:00,32.3,22.9,30.14,NW,317,1.0,2.0,68,0.00,,,0.00,0,WeatherCatV1.24B11,2014-01-19 01:10:00,
2014-01-18 19:11:00,32.2,22.9,30.14,NW,317,0.0,2.0,68,0.00,,,0.00,0,WeatherCatV1.24B11,2014-01-19 01:11:00,
2014-01-18 19:12:00,32.1,22.8,30.14,NW,317,1.0,2.0,68,0.00,,,0.00,0,WeatherCatV1.24B11,2014-01-19 01:12:00,
2014-01-18 19:13:00,32.0,22.6,30.14,NW,317,0.0,3.0,68,0.00,,,0.00,0,WeatherCatV1.24B11,2014-01-19 01:13:00,
2014-01-18 19:14:00,31.9,22.6,30.14,NW,317,0.0,1.0,68,0.00,,,0.00,0,WeatherCatV1.24B11,2014-01-19 01:14:00,
2014-01-18 19:15:00,31.9,22.6,30.14,NW,317,0.0,0.0,68,0.00,,,0.00,0,WeatherCatV1.24B11,2014-01-19 01:15:00,
2014-01-18 19:16:00,31.8,22.5,30.14,NW,317,0.0,0.0,68,0.00,,,0.00,0,WeatherCatV1.24B11,2014-01-19 01:16:00,
2014-01-18 19:17:00,31.8,22.5,30.14,NW,317,0.0,0.0,68,0.00,,,0.00,0,WeatherCatV1.24B11,2014-01-19 01:17:00,
2014-01-18 19:18:00,31.7,22.4,30.14,NW,317,0.0,0.0,68,0.00,,,0.00,0,WeatherCatV1.24B11,2014-01-19 01:18:00,
2014-01-18 19:20:00,31.6,22.3,30.14,NW,317,0.0,1.0,68,0.00,,,0.00,0,WeatherCatV1.24B11,2014-01-19 01:20:00,
2014-01-18 19:21:00,31.5,22.5,30.14,NW,317,0.0,0.0,69,0.00,,,0.00,0,WeatherCatV1.24B11,2014-01-19 01:21:00,
2014-01-18 19:22:00,31.5,22.5,30.14,NW,317,0.0,0.0,69,0.00,,,0.00,0,WeatherCatV1.24B11,2014-01-19 01:22:00,
2014-01-18 19:24:00,31.2,22.2,30.14,NW,317,0.0,1.0,69,0.00,,,0.00,0,WeatherCatV1.24B11,2014-01-19 01:24:00,
2014-01-18 19:25:00,31.2,22.2,30.14,NW,317,0.0,0.0,69,0.00,,,0.00,0,WeatherCatV1.24B11,2014-01-19 01:25:00,
2014-01-18 19:26:00,31.1,22.1,30.15,NW,317,0.0,0.0,69,0.00,,,0.00,0,WeatherCatV1.24B11,2014-01-19 01:26:00,
2014-01-18 19:27:00,31.0,22.0,30.14,NW,317,0.0,0.0,69,0.00,,,0.00,0,WeatherCatV1.24B11,2014-01-19 01:27:00,
2014-01-18 19:30:00,30.8,22.2,30.15,NW,317,1.0,2.0,70,0.00,,,0.00,0,WeatherCatV1.24B11,2014-01-19 01:30:00,
2014-01-18 19:31:00,30.7,22.1,30.14,NW,317,1.0,2.0,70,0.00,,,0.00,0,WeatherCatV1.24B11,2014-01-19 01:31:00,
2014-01-18 19:32:00,30.6,22.0,30.15,NW,317,1.0,3.0,70,0.00,,,0.00,0,WeatherCatV1.24B11,2014-01-19 01:32:00,
2014-01-18 19:35:00,30.4,21.8,30.14,NW,317,0.0,1.0,70,0.00,,,0.00,0,WeatherCatV1.24B11,2014-01-19 01:35:00,
2014-01-18 19:36:00,30.3,21.7,30.14,NW,317,1.0,2.0,70,0.00,,,0.00,0,WeatherCatV1.24B11,2014-01-19 01:36:00,
2014-01-18 19:37:00,30.3,21.7,30.14,NW,317,0.0,2.0,70,0.00,,,0.00,0,WeatherCatV1.24B11,2014-01-19 01:37:00,
2014-01-18 19:40:00,30.0,21.8,30.14,NW,317,0.0,0.0,71,0.00,,,0.00,0,WeatherCatV1.24B11,2014-01-19 01:40:00,
2014-01-18 19:41:00,30.0,21.8,30.14,NW,317,0.0,0.0,71,0.00,,,0.00,0,WeatherCatV1.24B11,2014-01-19 01:41:00,
2014-01-18 19:42:00,29.9,21.7,30.14,NW,317,0.0,0.0,71,0.00,,,0.00,0,WeatherCatV1.24B11,2014-01-19 01:42:00,
2014-01-18 19:45:00,29.7,21.5,30.13,NW,317,0.0,0.0,71,0.00,,,0.00,0,WeatherCatV1.24B11,2014-01-19 01:45:00,
2014-01-18 19:46:00,29.7,21.5,30.13,NW,317,0.0,0.0,71,0.00,,,0.00,0,WeatherCatV1.24B11,2014-01-19 01:46:00,
2014-01-18 19:47:00,29.7,21.5,30.13,NW,317,0.0,1.0,71,0.00,,,0.00,0,WeatherCatV1.24B11,2014-01-19 01:47:00,
2014-01-18 19:50:00,29.5,21.3,30.13,NW,317,0.0,0.0,71,0.00,,,0.00,0,WeatherCatV1.24B11,2014-01-19 01:50:00,
2014-01-18 19:51:00,29.5,21.3,30.13,NW,317,0.0,0.0,71,0.00,,,0.00,0,WeatherCatV1.24B11,2014-01-19 01:51:00,
2014-01-18 19:52:00,29.3,21.1,30.13,NW,317,0.0,0.0,71,0.00,,,0.00,0,WeatherCatV1.24B11,2014-01-19 01:52:00,
2014-01-18 19:55:00,29.0,21.1,30.13,NW,317,0.0,1.0,72,0.00,,,0.00,0,WeatherCatV1.24B11,2014-01-19 01:55:00,
2014-01-18 19:56:00,29.0,21.1,30.13,NW,317,0.0,1.0,72,0.00,,,0.00,0,WeatherCatV1.24B11,2014-01-19 01:56:00,
2014-01-18 19:57:00,28.8,20.9,30.13,NW,317,0.0,0.0,72,0.00,,,0.00,0,WeatherCatV1.24B11,2014-01-19 01:57:00,
2014-01-18 19:58:00,28.7,20.8,30.13,NW,317,2.0,2.0,72,0.00,,,0.00,0,WeatherCatV1.24B11,2014-01-19 01:58:00,
2014-01-18 20:00:00,28.2,20.4,30.13,NW,317,2.0,2.0,72,0.00,,,0.00,0,WeatherCatV1.24B11,2014-01-19 02:00:00,
2014-01-18 20:01:00,28.1,20.6,30.13,NW,317,1.0,2.0,73,0.00,,,0.00,0,WeatherCatV1.24B11,2014-01-19 02:01:00,
2014-01-18 20:02:00,28.0,20.5,30.13,NW,317,0.0,2.0,73,0.00,,,0.00,0,WeatherCatV1.24B11,2014-01-19 02:02:00,
2014-01-18 20:03:00,27.9,20.4,30.13,NW,317,0.0,1.0,73,0.00,,,0.00,0,WeatherCatV1.24B11,2014-01-19 02:03:00,
2014-01-18 20:06:00,27.6,20.4,30.13,NW,317,1.0,3.0,74,0.00,,,0.00,0,WeatherCatV1.24B11,2014-01-19 02:06:00,
2014-01-18 20:07:00,27.5,20.3,30.13,NW,317,2.0,3.0,74,0.00,,,0.00,0,WeatherCatV1.24B11,2014-01-19 02:07:00,
2014-01-18 20:08:00,27.5,20.3,30.13,NW,317,2.0,4.0,74,0.00,,,0.00,0,WeatherCatV1.24B11,2014-01-19 02:08:00,
2014-01-18 20:11:00,27.6,20.4,30.12,NW,317,0.0,2.0,74,0.00,,,0.00,0,WeatherCatV1.24B11,2014-01-19 02:11:00,
2014-01-18 20:12:00,27.6,20.4,30.12,NW,317,2.0,3.0,74,0.00,,,0.00,0,WeatherCatV1.24B11,2014-01-19 02:12:00,
2014-01-18 20:13:00,27.6,20.4,30.12,NW,317,0.0,3.0,74,0.00,,,0.00,0,WeatherCatV1.24B11,2014-01-19 02:13:00,
2014-01-18 20:16:00,27.6,20.4,30.11,NW,317,0.0,0.0,74,0.00,,,0.00,0,WeatherCatV1.24B11,2014-01-19 02:16:00,
2014-01-18 20:17:00,27.6,20.4,30.11,NW,317,0.0,0.0,74,0.00,,,0.00,0,WeatherCatV1.24B11,2014-01-19 02:17:00,
2014-01-18 20:18:00,27.6,20.4,30.11,NW,317,2.0,2.0,74,0.00,,,0.00,0,WeatherCatV1.24B11,2014-01-19 02:18:00,
2014-01-18 20:21:00,27.4,20.2,30.11,NW,317,0.0,2.0,74,0.00,,,0.00,0,WeatherCatV1.24B11,2014-01-19 02:21:00,
2014-01-18 20:22:00,27.4,20.2,30.11,NW,317,0.0,1.0,74,0.00,,,0.00,0,WeatherCatV1.24B11,2014-01-19 02:22:00,
2014-01-18 20:23:00,27.4,20.2,30.11,NW,317,1.0,2.0,74,0.00,,,0.00,0,WeatherCatV1.24B11,2014-01-19 02:23:00,
2014-01-18 20:24:00,27.4,20.2,30.11,NW,317,0.0,2.0,74,0.00,,,0.00,0,WeatherCatV1.24B11,2014-01-19 02:24:00,
2014-01-18 20:26:00,27.4,20.2,30.11,NW,317,0.0,3.0,74,0.00,,,0.00,0,WeatherCatV1.24B11,2014-01-19 02:26:00,
2014-01-18 20:27:00,27.4,20.2,30.11,NW,317,0.0,0.0,74,0.00,,,0.00,0,WeatherCatV1.24B11,2014-01-19 02:27:00,
2014-01-18 20:28:00,27.4,20.2,30.11,NW,317,0.0,1.0,74,0.00,,,0.00,0,WeatherCatV1.24B11,2014-01-19 02:28:00,
2014-01-18 20:29:00,27.4,20.2,30.11,NW,317,0.0,1.0,74,0.00,,,0.00,0,WeatherCatV1.24B11,2014-01-19 02:29:00,
2014-01-18 20:31:00,27.4,20.2,30.11,NW,317,0.0,3.0,74,0.00,,,0.00,0,WeatherCatV1.24B11,2014-01-19 02:31:00,
2014-01-18 20:32:00,27.3,20.1,30.10,NW,317,0.0,0.0,74,0.00,,,0.00,0,WeatherCatV1.24B11,2014-01-19 02:32:00,
2014-01-18 20:33:00,27.3,20.1,30.10,NW,317,0.0,0.0,74,0.00,,,0.00,0,WeatherCatV1.24B11,2014-01-19 02:33:00,
2014-01-18 20:34:00,27.2,20.0,30.10,NW,317,0.0,0.0,74,0.00,,,0.00,0,WeatherCatV1.24B11,2014-01-19 02:34:00,
2014-01-18 20:36:00,27.0,19.8,30.11,NW,317,0.0,0.0,74,0.00,,,0.00,0,WeatherCatV1.24B11,2014-01-19 02:36:00,
2014-01-18 20:37:00,26.9,19.7,30.10,NW,317,0.0,0.0,74,0.00,,,0.00,0,WeatherCatV1.24B11,2014-01-19 02:37:00,
2014-01-18 20:38:00,26.9,19.7,30.10,NW,317,0.0,0.0,74,0.00,,,0.00,0,WeatherCatV1.24B11,2014-01-19 02:38:00,
2014-01-18 20:39:00,26.8,19.6,30.10,NW,317,0.0,0.0,74,0.00,,,0.00,0,WeatherCatV1.24B11,2014-01-19 02:39:00,
2014-01-18 20:41:00,26.7,19.5,30.10,NW,317,0.0,0.0,74,0.00,,,0.00,0,WeatherCatV1.24B11,2014-01-19 02:41:00,
2014-01-18 20:42:00,27.0,20.1,30.10,NW,317,0.0,0.0,75,0.00,,,0.00,0,WeatherCatV1.24B11,2014-01-19 02:42:00,
2014-01-18 20:44:00,27.1,20.6,30.10,NW,317,0.0,0.0,76,0.00,,,0.00,0,WeatherCatV1.24B11,2014-01-19 02:44:00,
2014-01-18 20:46:00,27.0,20.5,30.10,NW,317,0.0,0.0,76,0.00,,,0.00,0,WeatherCatV1.24B11,2014-01-19 02:46:00,
2014-01-18 20:47:00,26.9,20.0,30.10,NW,317,0.0,0.0,75,0.00,,,0.00,0,WeatherCatV1.24B11,2014-01-19 02:47:00,
2014-01-18 20:49:00,26.8,20.0,30.10,NW,317,1.0,2.0,75,0.00,,,0.00,0,WeatherCatV1.24B11,2014-01-19 02:49:00,
2014-01-18 20:50:00,26.8,20.0,30.10,NW,317,2.0,2.0,75,0.00,,,0.00,0,WeatherCatV1.24B11,2014-01-19 02:50:00,
2014-01-18 20:51:00,26.7,19.9,30.10,NW,317,0.0,2.0,75,0.00,,,0.00,0,WeatherCatV1.24B11,2014-01-19 02:51:00,
2014-01-18 20:52:00,26.6,19.8,30.10,NW,317,1.0,1.0,75,0.00,,,0.00,0,WeatherCatV1.24B11,2014-01-19 02:52:00,
2014-01-18 20:54:00,26.5,19.4,30.10,NW,317,0.0,2.0,74,0.00,,,0.00,0,WeatherCatV1.24B11,2014-01-19 02:54:00,
2014-01-18 20:55:00,26.5,19.4,30.10,NW,317,0.0,2.0,74,0.00,,,0.00,0,WeatherCatV1.24B11,2014-01-19 02:55:00,
2014-01-18 20:56:00,26.3,19.2,30.10,NW,317,0.0,0.0,74,0.00,,,0.00,0,WeatherCatV1.24B11,2014-01-19 02:56:00,
2014-01-18 20:58:00,26.3,19.5,30.10,NW,317,0.0,0.0,75,0.00,,,0.00,0,WeatherCatV1.24B11,2014-01-19 02:58:00,
2014-01-18 20:59:00,26.2,19.4,30.10,NW,317,0.0,0.0,75,0.00,,,0.00,0,WeatherCatV1.24B11,2014-01-19 02:59:00,
2014-01-18 21:00:00,26.2,19.4,30.09,NW,317,0.0,0.0,75,0.00,,,0.00,0,WeatherCatV1.24B11,2014-01-19 03:00:00,
2014-01-18 21:02:00,26.2,19.4,30.09,NW,317,1.0,2.0,75,0.00,,,0.00,0,WeatherCatV1.24B11,2014-01-19 03:02:00,
2014-01-18 21:03:00,26.1,19.3,30.10,NW,317,2.0,3.0,75,0.00,,,0.00,0,WeatherCatV1.24B11,2014-01-19 03:03:00,
2014-01-18 21:05:00,26.0,19.2,30.09,NW,317,2.0,4.0,75,0.00,,,0.00,0,WeatherCatV1.24B11,2014-01-19 03:05:00,
2014-01-18 21:07:00,26.0,19.2,30.09,NW,317,0.0,3.0,75,0.00,,,0.00,0,WeatherCatV1.24B11,2014-01-19 03:07:00,
2014-01-18 21:08:00,25.9,19.1,30.09,NW,317,2.0,2.0,75,0.00,,,0.00,0,WeatherCatV1.24B11,2014-01-19 03:08:00,
2014-01-18 21:10:00,25.8,19.0,30.09,NW,317,2.0,3.0,75,0.00,,,0.00,0,WeatherCatV1.24B11,2014-01-19 03:10:00,
2014-01-18 21:12:00,25.8,19.0,30.09,NW,317,3.0,3.0,75,0.00,,,0.00,0,WeatherCatV1.24B11,2014-01-19 03:12:00,
2014-01-18 21:13:00,25.8,19.0,30.09,NW,317,3.0,5.0,75,0.00,,,0.00,0,WeatherCatV1.24B11,2014-01-19 03:13:00,
2014-01-18 21:15:00,25.8,19.0,30.09,NW,317,2.0,4.0,75,0.00,,,0.00,0,WeatherCatV1.24B11,2014-01-19 03:15:00,
2014-01-18 21:16:00,25.8,19.0,30.09,NW,317,2.0,3.0,75,0.00,,,0.00,0,WeatherCatV1.24B11,2014-01-19 03:16:00,
2014-01-18 21:17:00,25.8,19.0,30.09,NW,317,3.0,5.0,75,0.00,,,0.00,0,WeatherCatV1.24B11,2014-01-19 03:17:00,
2014-01-18 21:19:00,25.7,18.9,30.09,NW,317,0.0,3.0,75,0.00,,,0.00,0,WeatherCatV1.24B11,2014-01-19 03:19:00,
2014-01-18 21:20:00,25.8,19.0,30.09,NW,317,1.0,2.0,75,0.00,,,0.00,0,WeatherCatV1.24B11,2014-01-19 03:20:00,
2014-01-18 21:21:00,25.8,19.0,30.09,NW,317,0.0,2.0,75,0.00,,,0.00,0,WeatherCatV1.24B11,2014-01-19 03:21:00,
2014-01-18 21:22:00,25.7,18.9,30.09,NW,317,2.0,4.0,75,0.00,,,0.00,0,WeatherCatV1.24B11,2014-01-19 03:22:00,
2014-01-18 21:24:00,25.7,18.9,30.10,NW,317,0.0,2.0,75,0.00,,,0.00,0,WeatherCatV1.24B11,2014-01-19 03:24:00,
2014-01-18 21:25:00,25.7,18.9,30.09,NW,317,0.0,1.0,75,0.00,,,0.00,0,WeatherCatV1.24B11,2014-01-19 03:25:00,
2014-01-18 21:26:00,25.7,18.9,30.09,NW,317,0.0,1.0,75,0.00,,,0.00,0,WeatherCatV1.24B11,2014-01-19 03:26:00,
2014-01-18 21:27:00,25.7,18.9,30.09,NW,317,0.0,0.0,75,0.00,,,0.00,0,WeatherCatV1.24B11,2014-01-19 03:27:00,
2014-01-18 21:29:00,25.7,18.9,30.10,NW,317,4.0,5.0,75,0.00,,,0.00,0,WeatherCatV1.24B11,2014-01-19 03:29:00,
2014-01-18 21:31:00,25.7,18.9,30.10,NW,317,2.0,5.0,75,0.00,,,0.00,0,WeatherCatV1.24B11,2014-01-19 03:31:00,
2014-01-18 21:32:00,25.7,18.9,30.10,NW,317,4.0,4.0,75,0.00,,,0.00,0,WeatherCatV1.24B11,2014-01-19 03:32:00,
2014-01-18 21:34:00,25.6,18.8,30.10,NW,316,2.0,4.0,75,0.00,,,0.00,0,WeatherCatV1.24B11,2014-01-19 03:34:00,
2014-01-18 21:36:00,25.6,18.8,30.10,NW,316,2.0,4.0,75,0.00,,,0.00,0,WeatherCatV1.24B11,2014-01-19 03:36:00,
2014-01-18 21:38:00,25.6,18.8,30.10,NW,315,3.0,4.0,75,0.00,,,0.00,0,WeatherCatV1.24B11,2014-01-19 03:38:00,
2014-01-18 21:40:00,25.5,18.7,30.10,NW,316,1.0,2.0,75,0.00,,,0.00,0,WeatherCatV1.24B11,2014-01-19 03:40:00,
2014-01-18 21:41:00,25.5,18.7,30.10,NW,316,2.0,2.0,75,0.00,,,0.00,0,WeatherCatV1.24B11,2014-01-19 03:41:00,
2014-01-18 21:43:00,25.5,18.7,30.10,NW,316,2.0,4.0,75,0.00,,,0.00,0,WeatherCatV1.24B11,2014-01-19 03:43:00,
2014-01-18 21:46:00,25.4,18.6,30.10,NW,316,3.0,3.0,75,0.00,,,0.00,0,WeatherCatV1.24B11,2014-01-19 03:46:00,
2014-01-18 21:47:00,25.4,18.6,30.10,NW,316,2.0,4.0,75,0.00,,,0.00,0,WeatherCatV1.24B11,2014-01-19 03:47:00,
2014-01-18 21:48:00,25.4,18.6,30.10,NW,315,1.0,4.0,75,0.00,,,0.00,0,WeatherCatV1.24B11,2014-01-19 03:48:00,
2014-01-18 21:51:00,25.6,19.1,30.10,NW,316,2.0,3.0,76,0.00,,,0.00,0,WeatherCatV1.24B11,2014-01-19 03:51:00,
2014-01-18 21:52:00,25.6,19.1,30.10,NW,316,2.0,2.0,76,0.00,,,0.00,0,WeatherCatV1.24B11,2014-01-19 03:52:00,
2014-01-18 21:53:00,25.6,19.1,30.09,NW,315,2.0,2.0,76,0.00,,,0.00,0,WeatherCatV1.24B11,2014-01-19 03:53:00,
2014-01-18 21:56:00,25.6,18.8,30.10,NW,316,2.0,3.0,75,0.00,,,0.00,0,WeatherCatV1.24B11,2014-01-19 03:56:00,
2014-01-18 21:57:00,25.5,18.7,30.10,NW,316,2.0,3.0,75,0.00,,,0.00,0,WeatherCatV1.24B11,2014-01-19 03:57:00,
2014-01-18 21:58:00,25.5,18.7,30.10,NW,316,2.0,3.0,75,0.00,,,0.00,0,WeatherCatV1.24B11,2014-01-19 03:58:00,
2014-01-18 22:02:00,25.4,18.9,30.10,NW,315,1.0,3.0,76,0.00,,,0.00,0,WeatherCatV1.24B11,2014-01-19 04:02:00,
2014-01-18 22:03:00,25.4,18.9,30.09,NW,316,1.0,3.0,76,0.00,,,0.00,0,WeatherCatV1.24B11,2014-01-19 04:03:00,
2014-01-18 22:07:00,25.5,19.0,30.09,NW,316,1.0,2.0,76,0.00,,,0.00,0,WeatherCatV1.24B11,2014-01-19 04:07:00,
2014-01-18 22:08:00,25.6,19.1,30.09,NW,315,2.0,2.0,76,0.00,,,0.00,0,WeatherCatV1.24B11,2014-01-19 04:08:00,
2014-01-18 22:12:00,25.4,18.9,30.10,NW,315,2.0,4.0,76,0.00,,,0.00,0,WeatherCatV1.24B11,2014-01-19 04:12:00,
2014-01-18 22:13:00,25.4,18.9,30.10,NW,316,2.0,4.0,76,0.00,,,0.00,0,WeatherCatV1.24B11,2014-01-19 04:13:00,
2014-01-18 22:17:00,25.4,18.9,30.09,NW,316,0.0,1.0,76,0.00,,,0.00,0,WeatherCatV1.24B11,2014-01-19 04:17:00,
2014-01-18 22:18:00,25.4,18.9,30.09,NW,316,0.0,1.0,76,0.00,,,0.00,0,WeatherCatV1.24B11,2014-01-19 04:18:00,
2014-01-18 22:19:00,25.4,18.9,30.09,NW,315,0.0,0.0,76,0.00,,,0.00,0,WeatherCatV1.24B11,2014-01-19 04:19:00,
2014-01-18 22:22:00,25.4,18.9,30.09,NW,316,3.0,3.0,76,0.00,,,0.00,0,WeatherCatV1.24B11,2014-01-19 04:22:00,
2014-01-18 22:23:00,25.4,18.9,30.09,NW,315,2.0,3.0,76,0.00,,,0.00,0,WeatherCatV1.24B11,2014-01-19 04:23:00,
2014-01-18 22:24:00,25.4,18.9,30.09,NW,316,2.0,3.0,76,0.00,,,0.00,0,WeatherCatV1.24B11,2014-01-19 04:24:00,
2014-01-18 22:27:00,25.2,18.7,30.09,NW,315,2.0,4.0,76,0.00,,,0.00,0,WeatherCatV1.24B11,2014-01-19 04:27:00,
2014-01-18 22:28:00,25.2,18.7,30.09,NW,316,1.0,4.0,76,0.00,,,0.00,0,WeatherCatV1.24B11,2014-01-19 04:28:00,
2014-01-18 22:29:00,25.2,18.7,30.09,NW,315,4.0,5.0,76,0.00,,,0.00,0,WeatherCatV1.24B11,2014-01-19 04:29:00,
2014-01-18 22:32:00,25.2,18.7,30.09,NW,314,4.0,5.0,76,0.00,,,0.00,0,WeatherCatV1.24B11,2014-01-19 04:32:00,
2014-01-18 22:33:00,25.3,18.8,30.09,NW,315,3.0,5.0,76,0.00,,,0.00,0,WeatherCatV1.24B11,2014-01-19 04:33:00,
2014-01-18 22:34:00,25.3,19.1,30.09,NW,315,2.0,5.0,77,0.00,,,0.00,0,WeatherCatV1.24B11,2014-01-19 04:34:00,
2014-01-18 22:37:00,25.4,18.9,30.09,NW,315,1.0,3.0,76,0.00,,,0.00,0,WeatherCatV1.24B11,2014-01-19 04:37:00,
2014-01-18 22:38:00,25.4,18.9,30.09,NW,314,1.0,3.0,76,0.00,,,0.00,0,WeatherCatV1.24B11,2014-01-19 04:38:00,
2014-01-18 22:39:00,25.4,18.9,30.09,NW,314,1.0,4.0,76,0.00,,,0.00,0,WeatherCatV1.24B11,2014-01-19 04:39:00,
2014-01-18 22:43:00,25.4,18.9,30.09,NW,313,4.0,6.0,76,0.00,,,0.00,0,WeatherCatV1.24B11,2014-01-19 04:43:00,
2014-01-18 22:44:00,25.4,18.9,30.09,NW,312,5.0,5.0,76,0.00,,,0.00,0,WeatherCatV1.24B11,2014-01-19 04:44:00,
2014-01-18 22:45:00,25.4,18.9,30.09,NW,306,5.0,6.0,76,0.00,,,0.00,0,WeatherCatV1.24B11,2014-01-19 04:45:00,
2014-01-18 22:48:00,25.3,18.8,30.09,WNW,290,5.0,7.0,76,0.00,,,0.00,0,WeatherCatV1.24B11,2014-01-19 04:48:00,
2014-01-18 22:49:00,25.3,18.8,30.09,West,259,4.0,7.0,76,0.00,,,0.00,0,WeatherCatV1.24B11,2014-01-19 04:49:00,
2014-01-18 22:50:00,25.3,18.8,30.09,WSW,248,5.0,11.0,76,0.00,,,0.00,0,WeatherCatV1.24B11,2014-01-19 04:50:00,
2014-01-18 22:53:00,25.2,18.7,30.09,WSW,244,5.0,9.0,76,0.00,,,0.00,0,WeatherCatV1.24B11,2014-01-19 04:53:00,
2014-01-18 22:54:00,25.1,18.6,30.09,WSW,244,3.0,9.0,76,0.00,,,0.00,0,WeatherCatV1.24B11,2014-01-19 04:54:00,
2014-01-18 22:55:00,25.0,18.5,30.09,WSW,244,4.0,7.0,76,0.00,,,0.00,0,WeatherCatV1.24B11,2014-01-19 04:55:00,
2014-01-18 22:58:00,24.8,18.3,30.09,WSW,248,5.0,10.0,76,0.00,,,0.00,0,WeatherCatV1.24B11,2014-01-19 04:58:00,
2014-01-18 22:59:00,24.7,18.2,30.09,WSW,248,4.0,7.0,76,0.00,,,0.00,0,WeatherCatV1.24B11,2014-01-19 04:59:00,
2014-01-18 23:00:00,24.7,18.2,30.09,WSW,248,3.0,6.0,76,0.00,,,0.00,0,WeatherCatV1.24B11,2014-01-19 05:00:00,
2014-01-18 23:01:00,24.6,18.1,30.09,WSW,248,3.0,7.0,76,0.00,,,0.00,0,WeatherCatV1.24B11,2014-01-19 05:01:00,
2014-01-18 23:06:00,24.4,17.9,30.09,WSW,245,10.0,10.0,76,0.00,,,0.00,0,WeatherCatV1.24B11,2014-01-19 05:06:00,
2014-01-18 23:07:00,24.4,18.2,30.09,WSW,245,4.0,10.0,77,0.00,,,0.00,0,WeatherCatV1.24B11,2014-01-19 05:07:00,
2014-01-18 23:11:00,24.4,18.2,30.09,WSW,243,2.0,6.0,77,0.00,,,0.00,0,WeatherCatV1.24B11,2014-01-19 05:11:00,
2014-01-18 23:12:00,24.4,18.2,30.09,WSW,243,2.0,5.0,77,0.00,,,0.00,0,WeatherCatV1.24B11,2014-01-19 05:12:00,
2014-01-18 23:16:00,24.4,18.2,30.08,WSW,243,2.0,4.0,77,0.00,,,0.00,0,WeatherCatV1.24B11,2014-01-19 05:16:00,
2014-01-18 23:17:00,24.4,18.2,30.08,WSW,243,2.0,4.0,77,0.00,,,0.00,0,WeatherCatV1.24B11,2014-01-19 05:17:00,
2014-01-18 23:21:00,24.4,18.5,30.08,WSW,243,4.0,4.0,78,0.00,,,0.00,0,WeatherCatV1.24B11,2014-01-19 05:21:00,
2014-01-18 23:22:00,24.4,18.2,30.08,WSW,243,2.0,4.0,77,0.00,,,0.00,0,WeatherCatV1.24B11,2014-01-19 05:22:00,
2014-01-18 23:23:00,24.4,18.2,30.08,WSW,242,1.0,4.0,77,0.00,,,0.00,0,WeatherCatV1.24B11,2014-01-19 05:23:00,
2014-01-18 23:26:00,24.5,18.6,30.07,WSW,243,3.0,4.0,78,0.00,,,0.00,0,WeatherCatV1.24B11,2014-01-19 05:26:00,
2014-01-18 23:27:00,24.5,18.6,30.08,WSW,243,2.0,4.0,78,0.00,,,0.00,0,WeatherCatV1.24B11,2014-01-19 05:27:00,
2014-01-18 23:28:00,24.5,18.6,30.08,WSW,242,1.0,4.0,78,0.00,,,0.00,0,WeatherCatV1.24B11,2014-01-19 05:28:00,
2014-01-18 23:31:00,24.4,18.2,30.08,WSW,242,2.0,4.0,77,0.00,,,0.00,0,WeatherCatV1.24B11,2014-01-19 05:31:00,
2014-01-18 23:32:00,24.4,18.2,30.08,WSW,243,3.0,3.0,77,0.00,,,0.00,0,WeatherCatV1.24B11,2014-01-19 05:32:00,
2014-01-18 23:33:00,24.4,18.2,30.08,WSW,243,1.0,5.0,77,0.00,,,0.00,0,WeatherCatV1.24B11,2014-01-19 05:33:00,
2014-01-18 23:34:00,24.3,18.1,30.08,WSW,243,2.0,5.0,77,0.00,,,0.00,0,WeatherCatV1.24B11,2014-01-19 05:34:00,
2014-01-18 23:36:00,24.3,18.5,30.08,WSW,243,3.0,6.0,78,0.00,,,0.00,0,WeatherCatV1.24B11,2014-01-19 05:36:00,
2014-01-18 23:37:00,24.4,18.5,30.08,WSW,243,2.0,6.0,78,0.00,,,0.00,0,WeatherCatV1.24B11,2014-01-19 05:37:00,
2014-01-18 23:38:00,24.3,18.5,30.08,WSW,243,2.0,4.0,78,0.00,,,0.00,0,WeatherCatV1.24B11,2014-01-19 05:38:00,
2014-01-18 23:39:00,24.4,18.5,30.08,WSW,242,1.0,3.0,78,0.00,,,0.00,0,WeatherCatV1.24B11,2014-01-19 05:39:00,
2014-01-18 23:41:00,24.3,18.5,30.07,WSW,242,3.0,5.0,78,0.00,,,0.00,0,WeatherCatV1.24B11,2014-01-19 05:41:00,
2014-01-18 23:42:00,24.3,18.5,30.08,WSW,243,5.0,5.0,78,0.00,,,0.00,0,WeatherCatV1.24B11,2014-01-19 05:42:00,
2014-01-18 23:43:00,24.3,18.5,30.08,WSW,243,5.0,5.0,78,0.00,,,0.00,0,WeatherCatV1.24B11,2014-01-19 05:43:00,
2014-01-18 23:44:00,24.4,18.5,30.07,WSW,243,3.0,5.0,78,0.00,,,0.00,0,WeatherCatV1.24B11,2014-01-19 05:44:00,
2014-01-18 23:47:00,24.4,18.5,30.08,WSW,243,2.0,5.0,78,0.00,,,0.00,0,WeatherCatV1.24B11,2014-01-19 05:47:00,
2014-01-18 23:48:00,24.3,18.5,30.08,WSW,243,4.0,4.0,78,0.00,,,0.00,0,WeatherCatV1.24B11,2014-01-19 05:48:00,
2014-01-18 23:49:00,24.3,18.5,30.07,WSW,243,4.0,4.0,78,0.00,,,0.00,0,WeatherCatV1.24B11,2014-01-19 05:49:00,
2014-01-18 23:52:00,24.2,18.4,30.07,WSW,243,5.0,6.0,78,0.00,,,0.00,0,WeatherCatV1.24B11,2014-01-19 05:52:00,
2014-01-18 23:53:00,24.3,18.5,30.07,WSW,242,2.0,6.0,78,0.00,,,0.00,0,WeatherCatV1.24B11,2014-01-19 05:53:00,
2014-01-18 23:54:00,24.3,18.5,30.07,WSW,243,2.0,6.0,78,0.00,,,0.00,0,WeatherCatV1.24B11,2014-01-19 05:54:00,
2014-01-18 23:57:00,24.4,18.5,30.07,WSW,243,1.0,5.0,78,0.00,,,0.00,0,WeatherCatV1.24B11,2014-01-19 05:57:00,
2014-01-18 23:58:00,24.3,18.5,30.07,WSW,243,1.0,4.0,78,0.00,,,0.00,0,WeatherCatV1.24B11,2014-01-19 05:58:00,
2014-01-18 23:59:00,24.4,18.5,30.06,WSW,243,2.0,3.0,78,0.00,,,0.00,0,WeatherCatV1.24B11,2014-01-19 05:59:00,